M I D A S
Marine Information and Data Acquisition System
Tripno 2007 of the Zeeleeuw from 2010-09-23 07:11:26 to 2010-09-23 15:15:19
Back to CruiseResearch ActivitiesStationsMapUnderway DataData graphs

EquipmentUnitsComment
TimeDGPSUTC
LatitudeDGPSDM.mWGS84
LongitudeDGPSDM.mWGS84
TemperatureSBE03/SBE38deg celciusITS90
ConductivitySBE21S/mITS90
SalinitySBE21 Practical Salinity Units
ChlorophylAChelsea fluorimeterg/lCalibrated in Aceton
Missing or incorrect values are displayed as -999
Sea surface data collected by the RV Zeeleeuw from 2010-09-23 06:49:20 to 2010-09-23 15:23:59
                                                                                    Next 1000 lines
Time Latitude Longitude Temperature Conductivity Salinity ChlorophylA
2010-09-23 06:49:29 51°13.664 2°55.96 20.2049 0.071508 0.372717 -0.687152
2010-09-23 06:49:35 51°13.664 2°55.961 20.2061 0.071508 0.372722 -0.652328
2010-09-23 06:49:40 51°13.665 2°55.961 20.2076 0.071508 0.372722 -0.652328
2010-09-23 06:49:45 51°13.665 2°55.961 20.2089 0.071508 0.372722 -0.687152
2010-09-23 06:49:50 51°13.665 2°55.961 20.2083 0.071508 0.372728 -0.652328
2010-09-23 06:49:55 51°13.665 2°55.961 20.2088 0.071508 0.372728 -0.652328
2010-09-23 06:50:00 51°13.665 2°55.961 20.2068 0.071508 0.372728 -0.652328
2010-09-23 06:50:04 51°13.665 2°55.961 20.2079 0.071508 0.372739 -0.652328
2010-09-23 06:50:10 51°13.665 2°55.961 20.2094 0.071508 0.372739 -0.652328
2010-09-23 06:50:15 51°13.665 2°55.961 20.2086 0.071508 0.372739 -0.687152
2010-09-23 06:50:19 51°13.665 2°55.961 20.2092 0.071508 0.372739 -0.687152
2010-09-23 06:50:24 51°13.665 2°55.961 20.2102 0.071508 0.372745 -0.652328
2010-09-23 06:50:29 51°13.665 2°55.961 20.2109 0.071508 0.37275 -0.687152
2010-09-23 06:50:35 51°13.664 2°55.961 20.2113 0.071508 0.37275 -0.687152
2010-09-23 06:50:40 51°13.664 2°55.961 20.2124 0.071508 0.37275 -0.687152
2010-09-23 06:50:45 51°13.664 2°55.961 20.213 0.071508 0.372756 -0.652328
2010-09-23 06:50:50 51°13.665 2°55.961 20.2116 0.071508 0.372756 -0.687152
2010-09-23 06:50:55 51°13.665 2°55.961 20.2127 0.071508 0.372756 -0.687152
2010-09-23 06:50:59 51°13.665 2°55.961 20.2105 0.071508 0.372767 -0.652328
2010-09-23 06:51:04 51°13.665 2°55.961 20.212 0.071508 0.372767 -0.652328
2010-09-23 06:51:10 51°13.664 2°55.961 20.2082 0.071508 0.372767 -0.652328
2010-09-23 06:51:15 51°13.664 2°55.961 20.2071 0.071508 0.372767 -0.687152
2010-09-23 06:51:20 51°13.664 2°55.961 20.2071 0.071508 0.372773 -0.652328
2010-09-23 06:51:25 51°13.664 2°55.961 20.2071 0.071508 0.372778 -0.687152
2010-09-23 06:51:30 51°13.664 2°55.961 20.2077 0.071508 0.372784 -0.687152
2010-09-23 06:51:35 51°13.664 2°55.961 20.2073 0.071508 0.372784 -0.652328
2010-09-23 06:51:40 51°13.664 2°55.961 20.2086 0.071508 0.372784 -0.652328
2010-09-23 06:51:45 51°13.664 2°55.961 20.209 0.071508 0.372784 -0.687152
2010-09-23 06:51:50 51°13.664 2°55.961 20.2101 0.071508 0.37279 -0.721976
2010-09-23 06:51:55 51°13.664 2°55.96 20.2093 0.071508 0.372795 -0.687152
2010-09-23 06:52:00 51°13.664 2°55.96 20.2111 0.071508 0.37279 -0.687152
2010-09-23 06:52:05 51°13.664 2°55.961 20.2123 0.071508 0.372795 -0.687152
2010-09-23 06:52:10 51°13.664 2°55.96 20.2139 0.071508 0.372795 -0.687152
2010-09-23 06:52:15 51°13.664 2°55.96 20.2143 0.071508 0.372807 -0.687152
2010-09-23 06:52:20 51°13.664 2°55.96 20.2138 0.071508 0.372807 -0.687152
2010-09-23 06:52:25 51°13.664 2°55.96 20.214 0.071508 0.372807 -0.652328
2010-09-23 06:52:30 51°13.663 2°55.961 20.2142 0.071508 0.372812 -0.652328
2010-09-23 06:52:35 51°13.663 2°55.96 20.2159 0.071508 0.372812 -0.687152
2010-09-23 06:52:40 51°13.663 2°55.961 20.215 0.071508 0.372812 -0.687152
2010-09-23 06:52:45 51°13.663 2°55.961 20.215 0.071508 0.372818 -0.687152
2010-09-23 06:52:50 51°13.663 2°55.961 20.2157 0.071508 0.372818 -0.687152
2010-09-23 06:52:54 51°13.663 2°55.961 20.2165 0.071508 0.372823 -0.687152
2010-09-23 06:52:59 51°13.663 2°55.961 20.2161 0.071508 0.372823 -0.652328
2010-09-23 06:53:04 51°13.663 2°55.961 20.2161 0.071508 0.372829 -0.652328
2010-09-23 06:53:10 51°13.663 2°55.961 20.2165 0.071508 0.372829 -0.652328
2010-09-23 06:53:15 51°13.663 2°55.961 20.2144 0.071508 0.372835 -0.687152
2010-09-23 06:53:20 51°13.663 2°55.961 20.2151 0.071508 0.372835 -0.652328
2010-09-23 06:53:25 51°13.663 2°55.961 20.2169 0.071508 0.372835 -0.687152
2010-09-23 06:53:30 51°13.663 2°55.961 20.218 0.071508 0.37284 -0.652328
2010-09-23 06:53:35 51°13.663 2°55.961 20.2195 0.071508 0.37284 -0.687152
2010-09-23 06:53:40 51°13.663 2°55.961 20.2171 0.071508 0.37284 -0.687152
2010-09-23 06:53:45 51°13.663 2°55.961 20.218 0.071508 0.37284 -0.687152
2010-09-23 06:53:50 51°13.663 2°55.961 20.2196 0.071508 0.372852 -0.687152
2010-09-23 06:53:55 51°13.663 2°55.961 20.2181 0.071508 0.372857 -0.652328
2010-09-23 06:54:00 51°13.663 2°55.961 20.2168 0.071508 0.372857 -0.687152
2010-09-23 06:54:05 51°13.663 2°55.961 20.217 0.071508 0.372857 -0.687152
2010-09-23 06:54:10 51°13.663 2°55.961 20.2177 0.071508 0.372857 -0.687152
2010-09-23 06:54:15 51°13.663 2°55.961 20.2144 0.071508 0.372863 -0.652328
2010-09-23 06:54:20 51°13.663 2°55.961 20.2163 0.071508 0.372868 -0.652328
2010-09-23 06:54:25 51°13.663 2°55.961 20.2157 0.071508 0.372868 -0.687152
2010-09-23 06:54:30 51°13.663 2°55.961 20.2157 0.071716 0.373988 -0.687152
2010-09-23 06:54:35 51°13.663 2°55.961 20.2158 0.071716 0.373988 -0.652328
2010-09-23 06:54:40 51°13.663 2°55.961 20.2119 0.071716 0.373988 -0.652328
2010-09-23 06:54:45 51°13.663 2°55.961 20.2084 0.071716 0.374005 -0.687152
2010-09-23 06:54:49 51°13.663 2°55.961 20.2076 0.071716 0.373999 -0.687152
2010-09-23 06:54:54 51°13.663 2°55.961 20.2105 0.071716 0.373999 -0.652328
2010-09-23 06:55:00 51°13.663 2°55.961 20.2161 0.071716 0.374005 -0.652328
2010-09-23 06:55:04 51°13.663 2°55.961 20.2178 0.071716 0.37401 -0.687152
2010-09-23 06:55:09 51°13.663 2°55.961 20.2195 0.071716 0.37401 -0.687152
2010-09-23 06:55:14 51°13.663 2°55.96 20.2171 0.071716 0.37401 -0.652328
2010-09-23 06:55:20 51°13.663 2°55.961 20.2132 0.071716 0.374016 -0.652328
2010-09-23 06:55:24 51°13.662 2°55.961 20.2131 0.071716 0.374016 -0.687152
2010-09-23 06:55:30 51°13.663 2°55.961 20.2156 0.071716 0.374022 -0.652328
2010-09-23 06:55:34 51°13.663 2°55.961 20.2143 0.071612 0.373468 -0.687152
2010-09-23 06:55:39 51°13.663 2°55.961 20.2134 0.071612 0.373468 -0.687152
2010-09-23 06:55:45 51°13.662 2°55.961 20.2129 0.071716 0.374033 -0.652328
2010-09-23 06:55:50 51°13.662 2°55.961 20.2137 0.071612 0.373468 -0.652328
2010-09-23 06:55:55 51°13.663 2°55.961 20.2139 0.071716 0.374027 -0.687152
2010-09-23 06:56:00 51°13.663 2°55.961 20.2144 0.071612 0.373479 -0.652328
2010-09-23 06:56:05 51°13.663 2°55.961 20.215 0.071612 0.373479 -0.652328
2010-09-23 06:56:10 51°13.663 2°55.961 20.218 0.071612 0.373479 -0.652328
2010-09-23 06:56:15 51°13.663 2°55.961 20.2163 0.071612 0.373479 -0.687152
2010-09-23 06:56:20 51°13.663 2°55.961 20.2171 0.071612 0.37349 -0.687152
2010-09-23 06:56:25 51°13.662 2°55.961 20.2175 0.071612 0.37349 -0.687152
2010-09-23 06:56:30 51°13.662 2°55.961 20.2172 0.071716 0.37405 -0.687152
2010-09-23 06:56:35 51°13.662 2°55.961 20.2222 0.071612 0.373501 -0.687152
2010-09-23 06:56:40 51°13.662 2°55.961 20.2499 0.071612 0.373501 -0.687152
2010-09-23 06:56:45 51°13.662 2°55.961 20.2486 0.071716 0.374061 -0.687152
2010-09-23 06:56:50 51°13.662 2°55.961 20.2347 0.071612 0.373507 -0.687152
2010-09-23 06:56:55 51°13.662 2°55.96 20.2382 0.071612 0.373507 -0.652328
2010-09-23 06:57:00 51°13.663 2°55.96 20.2285 0.071612 0.373507 -0.687152
2010-09-23 06:57:05 51°13.662 2°55.96 20.2223 0.071612 0.373513 -0.652328
2010-09-23 06:57:10 51°13.662 2°55.96 20.221 0.071612 0.373513 -0.652328
2010-09-23 06:57:15 51°13.662 2°55.96 20.2252 0.071612 0.373518 -0.652328
2010-09-23 06:57:20 51°13.662 2°55.96 20.2266 0.071612 0.373513 -0.687152
2010-09-23 06:57:25 51°13.662 2°55.961 20.2269 0.071612 0.373524 -0.687152
2010-09-23 06:57:30 51°13.662 2°55.961 20.2235 0.071612 0.37353 -0.687152
2010-09-23 06:57:35 51°13.662 2°55.961 20.222 0.071612 0.37353 -0.687152
2010-09-23 06:57:40 51°13.662 2°55.961 20.2223 0.071612 0.37353 -0.687152
2010-09-23 06:57:45 51°13.662 2°55.961 20.2265 0.071612 0.373535 -0.652328
2010-09-23 06:57:50 51°13.663 2°55.961 20.2223 0.071612 0.373535 -0.687152
2010-09-23 06:57:55 51°13.663 2°55.961 20.2151 0.071612 0.373535 -0.687152
2010-09-23 06:58:00 51°13.663 2°55.961 20.2117 0.071612 0.373541 -0.652328
2010-09-23 06:58:05 51°13.663 2°55.961 20.2206 0.071612 0.373547 -0.652328
2010-09-23 06:58:10 51°13.663 2°55.961 20.222 0.071612 0.373547 -0.652328
2010-09-23 06:58:15 51°13.663 2°55.961 20.2209 0.071612 0.373547 -0.652328
2010-09-23 06:58:20 51°13.663 2°55.961 20.2193 0.071612 0.373547 -0.652328
2010-09-23 06:58:25 51°13.663 2°55.961 20.2336 0.071612 0.373547 -0.652328
2010-09-23 06:58:30 51°13.663 2°55.961 20.2358 0.071612 0.373558 -0.687152
2010-09-23 06:58:35 51°13.663 2°55.961 20.2318 0.071612 0.373558 -0.687152
2010-09-23 06:58:40 51°13.663 2°55.961 20.2186 0.071612 0.373558 -0.687152
2010-09-23 06:58:45 51°13.663 2°55.961 20.218 0.071612 0.373569 -0.687152
2010-09-23 06:58:50 51°13.663 2°55.961 20.2202 0.071612 0.373564 -0.687152
2010-09-23 06:58:55 51°13.663 2°55.961 20.2226 0.071612 0.373575 -0.652328
2010-09-23 06:59:00 51°13.663 2°55.961 20.2211 0.071612 0.373575 -0.687152
2010-09-23 06:59:05 51°13.663 2°55.961 20.2198 0.071612 0.373575 -0.687152
2010-09-23 06:59:10 51°13.663 2°55.961 20.2254 0.071612 0.373575 -0.687152
2010-09-23 06:59:15 51°13.663 2°55.96 20.2274 0.071612 0.37358 -0.652328
2010-09-23 06:59:20 51°13.663 2°55.961 20.2259 0.071612 0.37358 -0.687152
2010-09-23 06:59:25 51°13.663 2°55.961 20.2238 0.071612 0.37358 -0.652328
2010-09-23 06:59:30 51°13.663 2°55.96 20.2289 0.071612 0.373586 -0.652328
2010-09-23 06:59:35 51°13.663 2°55.96 20.2247 0.071612 0.373592 -0.652328
2010-09-23 06:59:40 51°13.663 2°55.96 20.2245 0.071612 0.373592 -0.652328
2010-09-23 06:59:45 51°13.662 2°55.961 20.2272 0.071612 0.373592 -0.687152
2010-09-23 06:59:50 51°13.663 2°55.961 20.2292 0.071612 0.373597 -0.687152
2010-09-23 06:59:55 51°13.663 2°55.961 20.2298 0.071612 0.373603 -0.687152
2010-09-23 07:00:00 51°13.663 2°55.961 20.2308 0.071612 0.373609 -0.652328
2010-09-23 07:00:05 51°13.663 2°55.961 20.2305 0.071612 0.373609 -0.687152
2010-09-23 07:00:10 51°13.662 2°55.961 20.2305 0.071612 0.373609 -0.687152
2010-09-23 07:00:15 51°13.662 2°55.961 20.2302 0.071612 0.373614 -0.652328
2010-09-23 07:00:20 51°13.663 2°55.961 20.2307 0.071612 0.373614 -0.652328
2010-09-23 07:00:25 51°13.663 2°55.961 20.2289 0.071612 0.373614 -0.687152
2010-09-23 07:00:30 51°13.663 2°55.961 20.2262 0.071612 0.373614 -0.687152
2010-09-23 07:00:35 51°13.663 2°55.96 20.226 0.071612 0.373626 -0.687152
2010-09-23 07:00:40 51°13.663 2°55.96 20.2253 0.071612 0.373626 -0.687152
2010-09-23 07:00:45 51°13.663 2°55.961 20.2246 0.071612 0.373626 -0.687152
2010-09-23 07:00:50 51°13.663 2°55.961 20.2234 0.071612 0.373631 -0.687152
2010-09-23 07:00:55 51°13.663 2°55.961 20.2318 0.071612 0.373631 -0.652328
2010-09-23 07:01:00 51°13.663 2°55.961 20.2346 0.071612 0.373643 -0.687152
2010-09-23 07:01:05 51°13.663 2°55.961 20.2365 0.071612 0.373637 -0.652328
2010-09-23 07:01:10 51°13.663 2°55.961 20.2376 0.071612 0.373637 -0.652328
2010-09-23 07:01:15 51°13.663 2°55.961 20.2353 0.071612 0.373648 -0.687152
2010-09-23 07:01:20 51°13.663 2°55.961 20.2353 0.071612 0.373648 -0.652328
2010-09-23 07:01:25 51°13.663 2°55.961 20.2332 0.071612 0.373648 -0.652328
2010-09-23 07:01:30 51°13.663 2°55.961 20.2337 0.071612 0.373654 -0.652328
2010-09-23 07:01:35 51°13.663 2°55.961 20.2297 0.071612 0.373659 -0.687152
2010-09-23 07:01:40 51°13.663 2°55.961 20.228 0.071612 0.373659 -0.687152
2010-09-23 07:01:45 51°13.663 2°55.961 20.2273 0.071612 0.373659 -0.687152
2010-09-23 07:01:50 51°13.663 2°55.961 20.2272 0.071612 0.373659 -0.687152
2010-09-23 07:01:55 51°13.663 2°55.961 20.2298 0.071612 0.373671 -0.687152
2010-09-23 07:02:00 51°13.663 2°55.961 20.2266 0.071612 0.373671 -0.652328
2010-09-23 07:02:05 51°13.663 2°55.961 20.2219 0.071612 0.373671 -0.687152
2010-09-23 07:02:10 51°13.663 2°55.961 20.2232 0.071612 0.373671 -0.687152
2010-09-23 07:02:15 51°13.663 2°55.961 20.2244 0.071612 0.373676 -0.652328
2010-09-23 07:02:20 51°13.663 2°55.961 20.2178 0.071612 0.373682 -0.652328
2010-09-23 07:02:25 51°13.663 2°55.961 20.2185 0.071612 0.373682 -0.721976
2010-09-23 07:02:30 51°13.662 2°55.961 20.2231 0.071612 0.373688 -0.687152
2010-09-23 07:02:34 51°13.662 2°55.961 20.2271 0.071612 0.373693 -0.687152
2010-09-23 07:02:39 51°13.662 2°55.961 20.2278 0.071612 0.373693 -0.687152
2010-09-23 07:02:45 51°13.662 2°55.961 20.2296 0.071612 0.373693 -0.721976
2010-09-23 07:02:50 51°13.662 2°55.961 20.2317 0.071612 0.373693 -0.652328
2010-09-23 07:02:55 51°13.662 2°55.961 20.231 0.071612 0.373699 -0.687152
2010-09-23 07:03:00 51°13.662 2°55.961 20.2321 0.071612 0.373705 -0.687152
2010-09-23 07:03:05 51°13.662 2°55.961 20.2305 0.071612 0.373705 -0.652328
2010-09-23 07:03:10 51°13.662 2°55.961 20.231 0.071612 0.373705 -0.652328
2010-09-23 07:03:15 51°13.662 2°55.961 20.2325 0.071612 0.37371 -0.652328
2010-09-23 07:03:20 51°13.662 2°55.961 20.2332 0.071612 0.373716 -0.687152
2010-09-23 07:03:25 51°13.662 2°55.961 20.2323 0.071612 0.373716 -0.687152
2010-09-23 07:03:30 51°13.662 2°55.961 20.239 0.071612 0.373722 -0.687152
2010-09-23 07:03:35 51°13.662 2°55.961 20.235 0.071612 0.373727 -0.687152
2010-09-23 07:03:40 51°13.662 2°55.961 20.2346 0.071612 0.373727 -0.687152
2010-09-23 07:03:44 51°13.663 2°55.96 20.2362 0.071612 0.373722 -0.687152
2010-09-23 07:03:49 51°13.663 2°55.961 20.2383 0.071612 0.373727 -0.687152
2010-09-23 07:03:54 51°13.662 2°55.961 20.2392 0.071612 0.373727 -0.687152
2010-09-23 07:04:00 51°13.662 2°55.96 20.239 0.071612 0.373739 -0.687152
2010-09-23 07:04:05 51°13.662 2°55.96 20.2377 0.071612 0.373733 -0.652328
2010-09-23 07:04:10 51°13.662 2°55.96 20.2375 0.071612 0.373733 -0.652328
2010-09-23 07:04:15 51°13.662 2°55.96 20.2366 0.071612 0.373744 -0.652328
2010-09-23 07:04:19 51°13.662 2°55.96 20.2348 0.071612 0.373744 -0.687152
2010-09-23 07:04:24 51°13.662 2°55.96 20.235 0.071612 0.37375 -0.652328
2010-09-23 07:04:29 51°13.662 2°55.96 20.2337 0.071612 0.37375 -0.652328
2010-09-23 07:04:33 51°13.662 2°55.96 20.2343 0.071612 0.37375 -0.721976
2010-09-23 07:04:38 51°13.662 2°55.96 20.2353 0.071612 0.37375 -0.721976
2010-09-23 07:04:44 51°13.662 2°55.96 20.2367 0.071612 0.373755 -0.652328
2010-09-23 07:04:49 51°13.662 2°55.96 20.2372 0.071612 0.373761 -0.687152
2010-09-23 07:04:53 51°13.662 2°55.96 20.2336 0.071612 0.373767 -0.687152
2010-09-23 07:04:58 51°13.662 2°55.96 20.2347 0.071612 0.373767 -0.652328
2010-09-23 07:05:03 51°13.662 2°55.96 20.2346 0.071612 0.373772 -0.687152
2010-09-23 07:05:08 51°13.662 2°55.96 20.2336 0.071612 0.373772 -0.687152
2010-09-23 07:05:13 51°13.662 2°55.96 20.2344 0.071612 0.373778 -0.687152
2010-09-23 07:05:17 51°13.662 2°55.961 20.2346 0.071612 0.373778 -0.687152
2010-09-23 07:05:22 51°13.662 2°55.96 20.2354 0.071612 0.373784 -0.687152
2010-09-23 07:05:27 51°13.662 2°55.96 20.2348 0.071612 0.373784 -0.652328
2010-09-23 07:05:32 51°13.662 2°55.96 20.2363 0.071612 0.373789 -0.687152
2010-09-23 07:05:37 51°13.662 2°55.961 20.234 0.071612 0.373789 -0.687152
2010-09-23 07:05:41 51°13.662 2°55.961 20.2328 0.071612 0.373789 -0.652328
2010-09-23 07:05:46 51°13.662 2°55.96 20.2324 0.071612 0.373795 -0.687152
2010-09-23 07:05:51 51°13.662 2°55.96 20.2339 0.071612 0.373801 -0.687152
2010-09-23 07:05:56 51°13.662 2°55.961 20.2345 0.071612 0.373801 -0.652328
2010-09-23 07:06:01 51°13.662 2°55.96 20.2339 0.071612 0.373806 -0.652328
2010-09-23 07:06:05 51°13.662 2°55.96 20.2348 0.071612 0.373806 -0.652328
2010-09-23 07:06:11 51°13.662 2°55.96 20.234 0.071612 0.373812 -0.652328
2010-09-23 07:06:16 51°13.662 2°55.96 20.2361 0.071612 0.373818 -0.652328
2010-09-23 07:06:21 51°13.662 2°55.96 20.2353 0.071612 0.373818 -0.687152
2010-09-23 07:06:26 51°13.662 2°55.96 20.2363 0.071612 0.373823 -0.687152
2010-09-23 07:06:31 51°13.662 2°55.96 20.2324 0.071612 0.373818 -0.687152
2010-09-23 07:06:36 51°13.662 2°55.96 20.2327 0.071612 0.373818 -0.687152
2010-09-23 07:06:41 51°13.662 2°55.96 20.2326 0.071612 0.373823 -0.687152
2010-09-23 07:06:46 51°13.662 2°55.961 20.2336 0.071612 0.373823 -0.687152
2010-09-23 07:06:51 51°13.662 2°55.96 20.2351 0.071612 0.373835 -0.687152
2010-09-23 07:06:56 51°13.662 2°55.96 20.2353 0.071612 0.373835 -0.652328
2010-09-23 07:07:01 51°13.662 2°55.96 20.2368 0.071612 0.37384 -0.652328
2010-09-23 07:07:06 51°13.663 2°55.96 20.2357 0.071612 0.37384 -0.652328
2010-09-23 07:07:11 51°13.662 2°55.96 20.2361 0.071612 0.373846 -0.687152
2010-09-23 07:07:16 51°13.662 2°55.96 20.2367 0.071612 0.373846 -0.687152
2010-09-23 07:07:21 51°13.662 2°55.961 20.2375 0.071612 0.373852 -0.687152
2010-09-23 07:07:26 51°13.662 2°55.96 20.2375 0.071612 0.373852 -0.652328
2010-09-23 07:07:31 51°13.662 2°55.96 20.2346 0.071612 0.373857 -0.652328
2010-09-23 07:07:36 51°13.662 2°55.96 20.2345 0.071612 0.373857 -0.652328
2010-09-23 07:07:41 51°13.663 2°55.96 20.2351 0.071612 0.373863 -0.687152
2010-09-23 07:07:46 51°13.663 2°55.96 20.2362 0.071612 0.373857 -0.687152
2010-09-23 07:07:51 51°13.663 2°55.96 20.2358 0.071612 0.373869 -0.652328
2010-09-23 07:07:56 51°13.662 2°55.961 20.2369 0.071612 0.373869 -0.687152
2010-09-23 07:08:01 51°13.662 2°55.96 20.2379 0.071612 0.373869 -0.687152
2010-09-23 07:08:06 51°13.662 2°55.96 20.2387 0.071612 0.373869 -0.687152
2010-09-23 07:08:11 51°13.663 2°55.96 20.2395 0.071612 0.373874 -0.652328
2010-09-23 07:08:16 51°13.662 2°55.96 20.2384 0.071612 0.37388 -0.687152
2010-09-23 07:08:21 51°13.663 2°55.96 20.2343 0.071612 0.37388 -0.687152
2010-09-23 07:08:26 51°13.663 2°55.96 20.2348 0.071612 0.373885 -0.652328
2010-09-23 07:08:31 51°13.663 2°55.96 20.2374 0.071612 0.373891 -0.687152
2010-09-23 07:08:36 51°13.663 2°55.96 20.2384 0.071612 0.373891 -0.687152
2010-09-23 07:08:41 51°13.663 2°55.96 20.2394 0.071612 0.373891 -0.687152
2010-09-23 07:08:46 51°13.663 2°55.96 20.2408 0.071612 0.373897 -0.687152
2010-09-23 07:08:51 51°13.663 2°55.96 20.2415 0.071612 0.373902 -0.687152
2010-09-23 07:08:56 51°13.663 2°55.96 20.2406 0.071612 0.373902 -0.652328
2010-09-23 07:09:01 51°13.663 2°55.96 20.2383 0.071612 0.373908 -0.652328
2010-09-23 07:09:06 51°13.663 2°55.96 20.2389 0.071612 0.373908 -0.652328
2010-09-23 07:09:11 51°13.663 2°55.96 20.2411 0.071612 0.373908 -0.652328
2010-09-23 07:09:16 51°13.663 2°55.96 20.241 0.071612 0.373914 -0.652328
2010-09-23 07:09:21 51°13.663 2°55.96 20.242 0.071612 0.373919 -0.652328
2010-09-23 07:09:26 51°13.663 2°55.961 20.2441 0.071612 0.373919 -0.687152
2010-09-23 07:09:31 51°13.663 2°55.96 20.2432 0.071612 0.373925 -0.687152
2010-09-23 07:09:36 51°13.663 2°55.96 20.2411 0.071612 0.373925 -0.687152
2010-09-23 07:09:41 51°13.663 2°55.96 20.2395 0.071612 0.373925 -0.652328
2010-09-23 07:09:46 51°13.663 2°55.96 20.2371 0.071612 0.373931 -0.652328
2010-09-23 07:09:51 51°13.663 2°55.961 20.2403 0.071612 0.373936 -0.687152
2010-09-23 07:09:57 51°13.662 2°55.961 20.2444 0.071612 0.373931 -0.721976
2010-09-23 07:10:01 51°13.662 2°55.961 20.2473 0.071612 0.373942 -0.687152
2010-09-23 07:10:05 51°13.662 2°55.96 20.2516 0.071612 0.373942 -0.687152
2010-09-23 07:10:11 51°13.662 2°55.961 20.2529 0.071612 0.373942 -0.687152
2010-09-23 07:10:16 51°13.662 2°55.961 20.2548 0.071612 0.373942 -0.687152
2010-09-23 07:10:21 51°13.662 2°55.96 20.2585 0.071612 0.373948 -0.652328
2010-09-23 07:10:26 51°13.662 2°55.961 20.2622 0.071612 0.373953 -0.652328
2010-09-23 07:10:31 51°13.663 2°55.961 20.2622 0.071612 0.373959 -0.652328
2010-09-23 07:10:36 51°13.663 2°55.961 20.2612 0.071612 0.373959 -0.652328
2010-09-23 07:10:41 51°13.663 2°55.96 20.2613 0.071612 0.373959 -0.652328
2010-09-23 07:10:46 51°13.663 2°55.961 20.2614 0.071612 0.373965 -0.687152
2010-09-23 07:10:50 51°13.663 2°55.961 20.262 0.071612 0.37397 -0.687152
2010-09-23 07:10:56 51°13.662 2°55.961 20.2625 0.071612 0.37397 -0.687152
2010-09-23 07:11:01 51°13.663 2°55.961 20.2632 0.071612 0.373976 -0.652328
2010-09-23 07:11:06 51°13.663 2°55.961 20.2622 0.071612 0.373976 -0.652328
2010-09-23 07:11:11 51°13.663 2°55.961 20.2624 0.071612 0.373976 -0.652328
2010-09-23 07:11:16 51°13.663 2°55.961 20.2628 0.071612 0.373982 -0.721976
2010-09-23 07:11:21 51°13.663 2°55.961 20.2643 0.071612 0.373982 -0.687152
2010-09-23 07:11:26 51°13.663 2°55.961 20.2639 0.071612 0.373987 -0.652328
2010-09-23 07:11:30 51°13.663 2°55.961 20.2642 0.071612 0.373993 -0.652328
2010-09-23 07:11:36 51°13.663 2°55.961 20.2647 0.071612 0.373993 -0.652328
2010-09-23 07:11:41 51°13.663 2°55.961 20.2653 0.071612 0.373993 -0.687152
2010-09-23 07:11:46 51°13.662 2°55.961 20.2663 0.071612 0.373999 -0.687152
2010-09-23 07:11:51 51°13.662 2°55.961 20.2652 0.071612 0.374004 -0.652328
2010-09-23 07:11:56 51°13.662 2°55.961 20.2658 0.071612 0.374004 -0.687152
2010-09-23 07:12:01 51°13.662 2°55.961 20.2653 0.071612 0.37401 -0.652328
2010-09-23 07:12:06 51°13.662 2°55.961 20.2659 0.071612 0.37401 -0.652328
2010-09-23 07:12:11 51°13.662 2°55.961 20.2682 0.071612 0.37401 -0.617504
2010-09-23 07:12:16 51°13.662 2°55.961 20.2669 0.071612 0.374016 -0.687152
2010-09-23 07:12:21 51°13.662 2°55.961 20.2684 0.071612 0.374016 -0.687152
2010-09-23 07:12:26 51°13.662 2°55.961 20.2686 0.071612 0.374021 -0.687152
2010-09-23 07:12:31 51°13.662 2°55.961 20.2684 0.071612 0.374027 -0.687152
2010-09-23 07:12:36 51°13.662 2°55.961 20.2692 0.071612 0.374027 -0.687152
2010-09-23 07:12:41 51°13.662 2°55.961 20.272 0.071612 0.374027 -0.687152
2010-09-23 07:12:46 51°13.662 2°55.961 20.2722 0.071612 0.374033 -0.687152
2010-09-23 07:12:51 51°13.662 2°55.961 20.2751 0.071612 0.374038 -0.652328
2010-09-23 07:12:56 51°13.662 2°55.961 20.2755 0.071612 0.374044 -0.652328
2010-09-23 07:13:01 51°13.662 2°55.961 20.2752 0.071612 0.374044 -0.687152
2010-09-23 07:13:06 51°13.662 2°55.961 20.278 0.071612 0.374044 -0.687152
2010-09-23 07:13:10 51°13.662 2°55.961 20.2782 0.071612 0.37405 -0.652328
2010-09-23 07:13:16 51°13.662 2°55.961 20.2759 0.071612 0.37405 -0.721976
2010-09-23 07:13:21 51°13.662 2°55.961 20.2747 0.071612 0.374055 -0.652328
2010-09-23 07:13:26 51°13.662 2°55.961 20.2729 0.071612 0.374061 -0.652328
2010-09-23 07:13:31 51°13.662 2°55.961 20.273 0.071612 0.374061 -0.687152
2010-09-23 07:13:36 51°13.662 2°55.961 20.2739 0.071612 0.374061 -0.687152
2010-09-23 07:13:41 51°13.662 2°55.961 20.2749 0.071612 0.374067 -0.652328
2010-09-23 07:13:46 51°13.662 2°55.961 20.2662 0.071612 0.374072 -0.652328
2010-09-23 07:13:50 51°13.662 2°55.961 20.2646 0.071612 0.374072 -0.687152
2010-09-23 07:13:56 51°13.662 2°55.961 20.2642 0.071612 0.374072 -0.687152
2010-09-23 07:14:01 51°13.662 2°55.961 20.264 0.071612 0.374078 -0.687152
2010-09-23 07:14:06 51°13.662 2°55.961 20.2671 0.071612 0.374078 -0.687152
2010-09-23 07:14:10 51°13.662 2°55.961 20.2694 0.071612 0.374078 -0.652328
2010-09-23 07:14:16 51°13.662 2°55.961 20.2777 0.071612 0.374083 -0.687152
2010-09-23 07:14:21 51°13.662 2°55.961 20.2788 0.071612 0.374083 -0.687152
2010-09-23 07:14:26 51°13.662 2°55.961 20.2786 0.071612 0.374089 -0.687152
2010-09-23 07:14:30 51°13.662 2°55.961 20.2778 0.071612 0.3741 -0.652328
2010-09-23 07:14:36 51°13.662 2°55.961 20.2791 0.071612 0.3741 -0.652328
2010-09-23 07:14:41 51°13.662 2°55.961 20.2804 0.071612 0.374095 -0.652328
2010-09-23 07:14:46 51°13.662 2°55.961 20.281 0.071612 0.374106 -0.652328
2010-09-23 07:14:51 51°13.662 2°55.961 20.281 0.071612 0.3741 -0.687152
2010-09-23 07:14:56 51°13.662 2°55.961 20.282 0.071612 0.374106 -0.652328
2010-09-23 07:15:01 51°13.662 2°55.961 20.282 0.071612 0.374112 -0.721976
2010-09-23 07:15:06 51°13.662 2°55.961 20.282 0.071612 0.374112 -0.721976
2010-09-23 07:15:11 51°13.661 2°55.961 20.2816 0.071612 0.374112 -0.687152
2010-09-23 07:15:16 51°13.661 2°55.961 20.2804 0.071612 0.374117 -0.652328
2010-09-23 07:15:21 51°13.661 2°55.961 20.2808 0.071612 0.374117 -0.721976
2010-09-23 07:15:26 51°13.661 2°55.961 20.2791 0.071612 0.374117 -0.687152
2010-09-23 07:15:30 51°13.661 2°55.961 20.2786 0.071612 0.374123 -0.687152
2010-09-23 07:15:36 51°13.661 2°55.961 20.2788 0.071612 0.374123 -0.687152
2010-09-23 07:15:41 51°13.661 2°55.961 20.2795 0.071612 0.374123 -0.652328
2010-09-23 07:15:46 51°13.661 2°55.961 20.2795 0.071612 0.374129 -0.687152
2010-09-23 07:15:51 51°13.661 2°55.961 20.2775 0.071612 0.374134 -0.687152
2010-09-23 07:15:56 51°13.661 2°55.961 20.2474 0.071612 0.374134 -0.687152
2010-09-23 07:16:01 51°13.661 2°55.96 20.2283 0.071612 0.37414 -0.652328
2010-09-23 07:16:06 51°13.661 2°55.96 20.2255 0.071612 0.37414 -0.652328
2010-09-23 07:16:11 51°13.661 2°55.959 20.2308 0.071612 0.374146 -0.687152
2010-09-23 07:16:16 51°13.662 2°55.958 20.2013 0.071612 0.374146 -0.687152
2010-09-23 07:16:21 51°13.662 2°55.956 20.2185 0.071612 0.374151 -0.687152
2010-09-23 07:16:26 51°13.663 2°55.953 20.2652 0.071612 0.374151 -0.687152
2010-09-23 07:16:30 51°13.664 2°55.951 20.2546 0.071612 0.374157 -0.687152
2010-09-23 07:16:36 51°13.665 2°55.947 20.2608 0.071612 0.374157 -0.687152
2010-09-23 07:16:42 51°13.666 2°55.943 20.2565 0.071612 0.374163 -0.652328
2010-09-23 07:16:47 51°13.668 2°55.938 20.2489 0.071612 0.374163 -0.652328
2010-09-23 07:16:53 51°13.669 2°55.933 20.2561 0.071612 0.374168 -0.687152
2010-09-23 07:16:59 51°13.671 2°55.927 20.2685 0.071612 0.374168 -0.652328
2010-09-23 07:17:04 51°13.672 2°55.922 20.2831 0.071612 0.374168 -0.687152
2010-09-23 07:17:10 51°13.674 2°55.915 20.2476 0.071612 0.374168 -0.687152
2010-09-23 07:17:15 51°13.676 2°55.909 20.2666 0.071612 0.374174 -0.687152
2010-09-23 07:17:20 51°13.678 2°55.902 20.2627 0.071612 0.374174 -0.687152
2010-09-23 07:17:25 51°13.679 2°55.896 20.2648 0.071612 0.37418 -0.687152
2010-09-23 07:17:30 51°13.681 2°55.889 20.2704 0.071612 0.37418 -0.687152
2010-09-23 07:17:34 51°13.682 2°55.883 20.2802 0.071612 0.37418 -0.687152
2010-09-23 07:17:40 51°13.684 2°55.874 20.2773 0.071612 0.37418 -0.687152
2010-09-23 07:17:45 51°13.685 2°55.866 20.2802 0.071612 0.374185 -0.687152
2010-09-23 07:17:50 51°13.686 2°55.858 20.293 0.071612 0.374185 -0.687152
2010-09-23 07:17:54 51°13.687 2°55.852 20.2881 0.071612 0.374185 -0.652328
2010-09-23 07:18:00 51°13.689 2°55.842 20.2954 0.071612 0.374191 -0.687152
2010-09-23 07:18:05 51°13.69 2°55.834 20.3044 0.071612 0.374191 -0.687152
2010-09-23 07:18:10 51°13.69 2°55.827 20.3085 0.071612 0.374191 -0.687152
2010-09-23 07:18:14 51°13.691 2°55.82 20.3058 0.071612 0.374197 -0.652328
2010-09-23 07:18:20 51°13.692 2°55.812 20.2935 0.071612 0.374202 -0.687152
2010-09-23 07:18:25 51°13.693 2°55.804 20.2913 0.071612 0.374202 -0.687152
2010-09-23 07:18:30 51°13.694 2°55.797 20.2899 0.071612 0.374202 -0.687152
2010-09-23 07:18:34 51°13.694 2°55.791 20.2921 0.071612 0.374208 -0.687152
2010-09-23 07:18:39 51°13.695 2°55.784 20.2878 0.071612 0.374208 -0.687152
2010-09-23 07:18:44 51°13.695 2°55.779 20.2919 0.071612 0.374208 -0.652328
2010-09-23 07:18:49 51°13.696 2°55.773 20.3033 0.071612 0.374208 -0.687152
2010-09-23 07:18:54 51°13.696 2°55.77 20.306 0.071612 0.374214 -0.687152
2010-09-23 07:18:58 51°13.696 2°55.768 20.3144 0.071612 0.374214 -0.687152
2010-09-23 07:19:03 51°13.696 2°55.766 20.3082 0.071612 0.374208 -0.687152
2010-09-23 07:19:08 51°13.697 2°55.764 20.3111 0.071612 0.374208 -0.687152
2010-09-23 07:19:13 51°13.697 2°55.763 20.3088 0.071612 0.374214 -0.687152
2010-09-23 07:19:18 51°13.698 2°55.763 20.3082 0.071612 0.374219 -0.687152
2010-09-23 07:19:23 51°13.7 2°55.762 20.2845 0.071612 0.374219 -0.687152
2010-09-23 07:19:28 51°13.701 2°55.763 20.2769 0.071612 0.374231 -0.687152
2010-09-23 07:19:33 51°13.702 2°55.763 20.2253 0.071612 0.374236 -0.687152
2010-09-23 07:19:38 51°13.702 2°55.763 20.2558 0.071612 0.374236 -0.687152
2010-09-23 07:19:42 51°13.701 2°55.763 20.2439 0.071612 0.374236 -0.687152
2010-09-23 07:19:47 51°13.7 2°55.761 20.2657 0.071612 0.374236 -0.687152
2010-09-23 07:19:52 51°13.699 2°55.759 20.2725 0.071612 0.374236 -0.687152
2010-09-23 07:19:57 51°13.698 2°55.757 20.296 0.071612 0.374231 -0.687152
2010-09-23 07:20:02 51°13.696 2°55.754 20.2791 0.071612 0.374236 -0.652328
2010-09-23 07:20:06 51°13.695 2°55.752 20.2903 0.071612 0.374236 -0.652328
2010-09-23 07:20:12 51°13.693 2°55.75 20.2898 0.071612 0.374231 -0.687152
2010-09-23 07:20:18 51°13.691 2°55.748 20.2961 0.071612 0.374225 -0.652328
2010-09-23 07:20:23 51°13.691 2°55.747 20.3066 0.071612 0.374225 -0.652328
2010-09-23 07:20:28 51°13.691 2°55.746 20.329 0.071612 0.374225 -0.687152
2010-09-23 07:20:33 51°13.692 2°55.745 20.3379 0.071612 0.374231 -0.687152
2010-09-23 07:20:38 51°13.694 2°55.745 20.3403 0.071612 0.374231 -0.687152
2010-09-23 07:20:43 51°13.696 2°55.744 20.3438 0.071612 0.374236 -0.687152
2010-09-23 07:20:48 51°13.698 2°55.742 20.3503 0.071612 0.374236 -0.652328
2010-09-23 07:20:53 51°13.701 2°55.741 20.3615 0.071612 0.374242 -0.687152
2010-09-23 07:20:59 51°13.705 2°55.738 20.3557 0.071612 0.374236 -0.652328
2010-09-23 07:21:02 51°13.707 2°55.736 20.3502 0.071612 0.374248 -0.687152
2010-09-23 07:21:08 51°13.713 2°55.731 20.3272 0.071612 0.374248 -0.687152
2010-09-23 07:21:13 51°13.718 2°55.726 20.3068 0.071612 0.374242 -0.652328
2010-09-23 07:21:19 51°13.725 2°55.72 20.277 0.071612 0.374242 -0.687152
2010-09-23 07:21:22 51°13.728 2°55.716 20.2681 0.071612 0.374236 -0.652328
2010-09-23 07:21:28 51°13.737 2°55.709 20.2623 0.071612 0.374236 -0.687152
2010-09-23 07:21:33 51°13.744 2°55.701 20.2552 0.071612 0.374248 -0.687152
2010-09-23 07:21:38 51°13.752 2°55.694 20.2437 0.071612 0.374248 -0.687152
2010-09-23 07:21:43 51°13.761 2°55.686 20.221 0.071612 0.374253 -0.652328
2010-09-23 07:21:47 51°13.768 2°55.68 20.2353 0.071612 0.374265 -0.652328
2010-09-23 07:21:52 51°13.777 2°55.672 20.1953 0.071612 0.37427 -0.652328
2010-09-23 07:21:58 51°13.789 2°55.662 20.2178 0.071612 0.374276 -0.687152
2010-09-23 07:22:03 51°13.799 2°55.654 20.162 0.071612 0.374276 -0.687152
2010-09-23 07:22:07 51°13.808 2°55.648 20.1531 0.071612 0.374276 -0.687152
2010-09-23 07:22:12 51°13.818 2°55.639 20.1489 0.071612 0.37427 -0.687152
2010-09-23 07:22:16 51°13.827 2°55.633 20.1631 0.071612 0.374276 -0.652328
2010-09-23 07:22:22 51°13.841 2°55.623 20.1834 0.071612 0.374282 -0.687152
2010-09-23 07:22:27 51°13.852 2°55.615 20.1681 0.071612 0.374287 -0.652328
2010-09-23 07:22:31 51°13.861 2°55.608 20.1673 0.071612 0.374299 -0.687152
2010-09-23 07:22:36 51°13.872 2°55.6 20.1831 0.071612 0.374299 -0.687152
2010-09-23 07:22:41 51°13.884 2°55.592 20.2024 0.071612 0.374304 -0.687152
2010-09-23 07:22:46 51°13.896 2°55.583 20.2029 0.071612 0.374304 -0.687152
2010-09-23 07:22:51 51°13.908 2°55.575 20.1987 0.071612 0.374316 -0.652328
2010-09-23 07:22:55 51°13.918 2°55.568 20.1858 0.071612 0.37431 -0.652328
2010-09-23 07:23:01 51°13.932 2°55.558 20.2052 0.071612 0.374304 -0.687152
2010-09-23 07:23:06 51°13.944 2°55.549 20.1963 0.071612 0.374304 -0.687152
2010-09-23 07:23:11 51°13.956 2°55.54 20.1872 0.071612 0.37431 -0.652328
2010-09-23 07:23:15 51°13.966 2°55.533 20.2018 0.071612 0.37431 -0.687152
2010-09-23 07:23:21 51°13.981 2°55.522 20.1721 0.071612 0.37431 -0.652328
2010-09-23 07:23:26 51°13.993 2°55.513 20.162 0.071612 0.374321 -0.652328
2010-09-23 07:23:31 51°14.005 2°55.505 20.1625 0.071612 0.374327 -0.687152
2010-09-23 07:23:35 51°14.015 2°55.497 20.1718 0.071612 0.374327 -0.687152
2010-09-23 07:23:41 51°14.029 2°55.487 20.1713 0.071612 0.374333 -0.652328
2010-09-23 07:23:46 51°14.042 2°55.478 20.1742 0.071612 0.374338 -0.652328
2010-09-23 07:23:51 51°14.054 2°55.469 20.1752 0.071612 0.374338 -0.687152
2010-09-23 07:23:56 51°14.066 2°55.46 20.1817 0.071612 0.374344 -0.652328
2010-09-23 07:24:01 51°14.078 2°55.451 20.2016 0.071612 0.374338 -0.652328
2010-09-23 07:24:06 51°14.09 2°55.442 20.2137 0.071612 0.374338 -0.652328
2010-09-23 07:24:11 51°14.103 2°55.432 20.2111 0.071612 0.374344 -0.652328
2010-09-23 07:24:15 51°14.113 2°55.424 20.1968 0.071612 0.37435 -0.687152
2010-09-23 07:24:21 51°14.128 2°55.412 20.2179 0.071612 0.37435 -0.687152
2010-09-23 07:24:26 51°14.14 2°55.403 20.2246 0.071612 0.374361 -0.687152
2010-09-23 07:24:31 51°14.153 2°55.392 20.2241 0.071612 0.374367 -0.652328
2010-09-23 07:24:35 51°14.163 2°55.383 20.2158 0.071612 0.374367 -0.652328
2010-09-23 07:24:41 51°14.178 2°55.371 20.2175 0.071612 0.374372 -0.687152
2010-09-23 07:24:46 51°14.19 2°55.36 20.224 0.071612 0.374372 -0.687152
2010-09-23 07:24:51 51°14.203 2°55.35 20.2363 0.071612 0.374378 -0.687152
2010-09-23 07:24:55 51°14.213 2°55.341 20.2055 0.071612 0.374384 -0.687152
2010-09-23 07:25:01 51°14.228 2°55.328 20.2216 0.071612 0.374389 -0.687152
2010-09-23 07:25:06 51°14.241 2°55.316 20.244 0.071612 0.374389 -0.687152
2010-09-23 07:25:11 51°14.254 2°55.305 20.2469 0.071612 0.374389 -0.687152
2010-09-23 07:25:15 51°14.264 2°55.295 20.1812 0.071612 0.374395 -0.687152
2010-09-23 07:25:21 51°14.28 2°55.281 20.2176 0.071612 0.374407 -0.652328
2010-09-23 07:25:26 51°14.292 2°55.268 20.2031 0.071612 0.374407 -0.687152
2010-09-23 07:25:31 51°14.305 2°55.255 20.1927 0.071612 0.374412 -0.652328
2010-09-23 07:25:35 51°14.316 2°55.245 20.1927 0.071612 0.374412 -0.652328
2010-09-23 07:25:41 51°14.333 2°55.228 20.1526 0.071612 0.374412 -0.687152
2010-09-23 07:25:46 51°14.346 2°55.213 20.187 0.071612 0.374424 -0.652328
2010-09-23 07:25:51 51°14.359 2°55.199 20.1988 0.071612 0.374418 -0.652328
2010-09-23 07:25:55 51°14.37 2°55.187 20.1063 0.071612 0.374429 -0.652328
2010-09-23 07:26:01 51°14.386 2°55.17 20.116 0.071612 0.374429 -0.687152
2010-09-23 07:26:06 51°14.4 2°55.156 20.0821 0.071612 0.374429 -0.687152
2010-09-23 07:26:11 51°14.415 2°55.142 20.1043 0.071612 0.374435 -0.652328
2010-09-23 07:26:15 51°14.426 2°55.13 20.1212 0.071612 0.374435 -0.687152
2010-09-23 07:26:20 51°14.44 2°55.114 20.0604 0.071612 0.374446 -0.687152
2010-09-23 07:26:26 51°14.457 2°55.096 20.187 0.071612 0.374446 -0.687152
2010-09-23 07:26:31 51°14.472 2°55.081 20.1513 0.071612 0.374446 -0.652328
2010-09-23 07:26:35 51°14.484 2°55.068 20.1962 0.071612 0.374446 -0.652328
2010-09-23 07:26:41 51°14.501 2°55.049 20.2013 0.071612 0.374458 -0.687152
2010-09-23 07:26:46 51°14.516 2°55.032 20.2049 0.071612 0.374469 -0.652328
2010-09-23 07:26:51 51°14.53 2°55.014 20.2047 0.071612 0.37448 -0.652328
2010-09-23 07:26:55 51°14.541 2°54.999 20.1312 0.071612 0.37448 -0.652328
2010-09-23 07:27:01 51°14.558 2°54.975 20.0174 0.071612 0.37448 -0.687152
2010-09-23 07:27:06 51°14.572 2°54.957 20.151 0.071612 0.37448 -0.687152
2010-09-23 07:27:11 51°14.586 2°54.939 20.0903 0.071612 0.374469 -0.687152
2010-09-23 07:27:15 51°14.598 2°54.924 20.1452 0.071612 0.374469 -0.687152
2010-09-23 07:27:20 51°14.613 2°54.907 20.0862 0.071612 0.374469 -0.652328
2010-09-23 07:27:26 51°14.631 2°54.887 20.1839 0.071612 0.374475 -0.687152
2010-09-23 07:27:31 51°14.646 2°54.871 20.1781 0.071612 0.374486 -0.687152
2010-09-23 07:27:35 51°14.659 2°54.859 20.1904 0.071612 0.374486 -0.687152
2010-09-23 07:27:40 51°14.674 2°54.843 20.1694 0.071612 0.374503 -0.652328
2010-09-23 07:27:46 51°14.693 2°54.823 20.2168 0.071612 0.374509 -0.687152
2010-09-23 07:27:51 51°14.708 2°54.807 20.2028 0.071612 0.37452 -0.652328
2010-09-23 07:27:55 51°14.72 2°54.794 20.1938 0.071612 0.374526 -0.721976
2010-09-23 07:28:01 51°14.738 2°54.773 20.1927 0.071612 0.374531 -0.687152
2010-09-23 07:28:06 51°14.753 2°54.756 20.1686 0.071612 0.374531 -0.687152
2010-09-23 07:28:11 51°14.768 2°54.738 20.1892 0.071612 0.374531 -0.652328
2010-09-23 07:28:15 51°14.779 2°54.725 20.1513 0.071612 0.374531 -0.687152
2010-09-23 07:28:21 51°14.797 2°54.704 20.189 0.071612 0.374526 -0.687152
2010-09-23 07:28:26 51°14.812 2°54.686 20.1656 0.071612 0.374526 -0.687152
2010-09-23 07:28:31 51°14.826 2°54.669 20.1888 0.071612 0.374526 -0.721976
2010-09-23 07:28:36 51°14.841 2°54.651 20.2088 0.071612 0.374526 -0.721976
2010-09-23 07:28:41 51°14.856 2°54.634 20.1778 0.071612 0.374531 -0.687152
2010-09-23 07:28:46 51°14.87 2°54.616 20.2032 0.071612 0.374543 -0.687152
2010-09-23 07:28:51 51°14.885 2°54.598 20.1838 0.071612 0.374554 -0.721976
2010-09-23 07:28:55 51°14.897 2°54.584 20.2063 0.071612 0.37456 -0.687152
2010-09-23 07:29:01 51°14.914 2°54.562 20.178 0.071612 0.374565 -0.652328
2010-09-23 07:29:06 51°14.929 2°54.544 20.173 0.071612 0.374565 -0.652328
2010-09-23 07:29:11 51°14.943 2°54.526 20.1859 0.071612 0.374554 -0.687152
2010-09-23 07:29:15 51°14.954 2°54.512 20.1907 0.071612 0.374554 -0.652328
2010-09-23 07:29:20 51°14.968 2°54.495 20.201 0.071612 0.37456 -0.687152
2010-09-23 07:29:26 51°14.986 2°54.474 20.1729 0.071612 0.374571 -0.687152
2010-09-23 07:29:31 51°15 2°54.456 20.2084 0.071612 0.374577 -0.687152
2010-09-23 07:29:35 51°15.011 2°54.442 20.1932 0.071612 0.374577 -0.687152
2010-09-23 07:29:41 51°15.029 2°54.421 20.2081 0.071612 0.374577 -0.721976
2010-09-23 07:29:46 51°15.043 2°54.403 20.2021 0.071612 0.374588 -0.687152
2010-09-23 07:29:51 51°15.057 2°54.386 20.1741 0.071612 0.374588 -0.687152
2010-09-23 07:29:55 51°15.069 2°54.372 20.1732 0.071612 0.3746 -0.652328
2010-09-23 07:30:01 51°15.086 2°54.351 20.1851 0.071612 0.374605 -0.687152
2010-09-23 07:30:06 51°15.1 2°54.333 20.1853 0.071612 0.374605 -0.687152
2010-09-23 07:30:11 51°15.115 2°54.316 20.2227 0.071612 0.374611 -0.687152
2010-09-23 07:30:15 51°15.127 2°54.302 20.1972 0.071612 0.374611 -0.687152
2010-09-23 07:30:21 51°15.144 2°54.28 20.2215 0.071612 0.374605 -0.652328
2010-09-23 07:30:26 51°15.158 2°54.262 20.1806 0.071612 0.374605 -0.652328
2010-09-23 07:30:31 51°15.173 2°54.244 20.1887 0.071612 0.374617 -0.721976
2010-09-23 07:30:36 51°15.187 2°54.226 20.1551 0.071612 0.374617 -0.721976
2010-09-23 07:30:41 51°15.201 2°54.207 20.18 0.071612 0.374622 -0.652328
2010-09-23 07:30:46 51°15.216 2°54.189 20.1726 0.071612 0.374617 -0.687152
2010-09-23 07:30:51 51°15.23 2°54.171 20.1996 0.071612 0.374634 -0.721976
2010-09-23 07:30:55 51°15.242 2°54.158 20.1911 0.071612 0.374628 -0.652328
2010-09-23 07:31:01 51°15.259 2°54.137 20.1684 0.071612 0.374645 -0.652328
2010-09-23 07:31:06 51°15.274 2°54.12 20.1925 0.071612 0.374645 -0.652328
2010-09-23 07:31:11 51°15.289 2°54.102 20.1743 0.071612 0.374639 -0.687152
2010-09-23 07:31:15 51°15.301 2°54.089 20.1896 0.071612 0.374656 -0.687152
2010-09-23 07:31:21 51°15.319 2°54.068 20.1914 0.071612 0.374651 -0.687152
2010-09-23 07:31:26 51°15.334 2°54.051 20.2067 0.071612 0.374656 -0.687152
2010-09-23 07:31:31 51°15.349 2°54.034 20.2077 0.071612 0.374662 -0.652328
2010-09-23 07:31:35 51°15.36 2°54.02 20.223 0.071612 0.374662 -0.652328
2010-09-23 07:31:40 51°15.375 2°54.003 20.2075 0.071612 0.374673 -0.687152
2010-09-23 07:31:46 51°15.393 2°53.982 20.2101 0.071612 0.374679 -0.652328
2010-09-23 07:31:51 51°15.407 2°53.964 20.1931 0.071612 0.374679 -0.687152
2010-09-23 07:31:55 51°15.419 2°53.949 20.205 0.071612 0.374679 -0.687152
2010-09-23 07:32:01 51°15.436 2°53.927 20.1983 0.071612 0.374685 -0.687152
2010-09-23 07:32:05 51°15.447 2°53.912 20.1757 0.071612 0.374685 -0.687152
2010-09-23 07:32:11 51°15.465 2°53.889 20.1849 0.071612 0.37469 -0.687152
2010-09-23 07:32:15 51°15.476 2°53.874 20.1881 0.071612 0.374685 -0.652328
2010-09-23 07:32:21 51°15.493 2°53.853 20.1869 0.071612 0.374696 -0.652328
2010-09-23 07:32:26 51°15.508 2°53.835 20.2054 0.071612 0.374696 -0.652328
2010-09-23 07:32:31 51°15.523 2°53.817 20.1978 0.071612 0.374702 -0.652328
2010-09-23 07:32:35 51°15.534 2°53.802 20.1924 0.071612 0.374702 -0.652328
2010-09-23 07:32:41 51°15.552 2°53.781 20.2138 0.071612 0.374707 -0.687152
2010-09-23 07:32:46 51°15.567 2°53.763 20.2135 0.071612 0.374707 -0.687152
2010-09-23 07:32:51 51°15.581 2°53.745 20.1924 0.071612 0.374719 -0.721976
2010-09-23 07:32:55 51°15.593 2°53.73 20.2025 0.071612 0.374707 -0.687152
2010-09-23 07:33:01 51°15.611 2°53.709 20.2119 0.071612 0.37473 -0.687152
2010-09-23 07:33:06 51°15.626 2°53.691 20.2044 0.071612 0.37473 -0.687152
2010-09-23 07:33:11 51°15.64 2°53.673 20.1967 0.071612 0.374725 -0.687152
2010-09-23 07:33:15 51°15.652 2°53.659 20.2227 0.071612 0.374725 -0.687152
2010-09-23 07:33:21 51°15.67 2°53.638 20.2251 0.071612 0.37473 -0.687152
2010-09-23 07:33:26 51°15.685 2°53.62 20.1978 0.071612 0.374736 -0.652328
2010-09-23 07:33:31 51°15.7 2°53.602 20.1963 0.071612 0.374742 -0.687152
2010-09-23 07:33:35 51°15.711 2°53.588 20.1942 0.071612 0.374742 -0.687152
2010-09-23 07:33:41 51°15.729 2°53.566 20.1812 0.071612 0.374736 -0.687152
2010-09-23 07:33:46 51°15.744 2°53.549 20.1646 0.071612 0.374747 -0.687152
2010-09-23 07:33:51 51°15.759 2°53.531 20.2077 0.071612 0.374753 -0.687152
2010-09-23 07:33:55 51°15.771 2°53.517 20.1864 0.071612 0.374759 -0.652328
2010-09-23 07:34:01 51°15.789 2°53.497 20.1938 0.071612 0.374764 -0.652328
2010-09-23 07:34:06 51°15.804 2°53.48 20.1821 0.071612 0.374764 -0.652328
2010-09-23 07:34:11 51°15.819 2°53.463 20.189 0.071612 0.374753 -0.652328
2010-09-23 07:34:15 51°15.831 2°53.449 20.1718 0.071612 0.374759 -0.687152
2010-09-23 07:34:21 51°15.849 2°53.429 20.1772 0.071612 0.37477 -0.687152
2010-09-23 07:34:26 51°15.865 2°53.413 20.172 0.071612 0.37477 -0.687152
2010-09-23 07:34:31 51°15.88 2°53.397 20.2116 0.071612 0.37477 -0.687152
2010-09-23 07:34:35 51°15.893 2°53.385 20.1994 0.071612 0.37477 -0.687152
2010-09-23 07:34:41 51°15.911 2°53.367 20.2097 0.071612 0.374776 -0.687152
2010-09-23 07:34:46 51°15.927 2°53.351 20.2 0.071612 0.374781 -0.687152
2010-09-23 07:34:51 51°15.942 2°53.335 20.2233 0.071612 0.374793 -0.652328
2010-09-23 07:34:55 51°15.954 2°53.321 20.2173 0.071612 0.374787 -0.687152
2010-09-23 07:35:01 51°15.972 2°53.302 20.1951 0.071612 0.374793 -0.687152
2010-09-23 07:35:06 51°15.987 2°53.285 20.1946 0.071612 0.374793 -0.687152
2010-09-23 07:35:11 51°16.003 2°53.269 20.1956 0.071612 0.374793 -0.687152
2010-09-23 07:35:15 51°16.015 2°53.256 20.1901 0.071612 0.374787 -0.687152
2010-09-23 07:35:21 51°16.033 2°53.237 20.1867 0.071612 0.374798 -0.687152
2010-09-23 07:35:26 51°16.048 2°53.221 20.2191 0.071612 0.374804 -0.687152
2010-09-23 07:35:31 51°16.064 2°53.205 20.1959 0.071612 0.374798 -0.652328
2010-09-23 07:35:35 51°16.076 2°53.192 20.2126 0.071612 0.374798 -0.652328
2010-09-23 07:35:41 51°16.094 2°53.172 20.209 0.071612 0.374804 -0.687152
2010-09-23 07:35:46 51°16.109 2°53.156 20.2163 0.071612 0.374804 -0.687152
2010-09-23 07:35:51 51°16.124 2°53.14 20.2038 0.071612 0.374815 -0.687152
2010-09-23 07:35:55 51°16.137 2°53.127 20.2018 0.071612 0.374821 -0.687152
2010-09-23 07:36:01 51°16.155 2°53.108 20.1977 0.071612 0.374821 -0.652328
2010-09-23 07:36:06 51°16.17 2°53.091 20.1969 0.071612 0.374821 -0.652328
2010-09-23 07:36:11 51°16.185 2°53.075 20.2126 0.071612 0.374821 -0.687152
2010-09-23 07:36:15 51°16.197 2°53.062 20.2097 0.071612 0.374815 -0.652328
2010-09-23 07:36:21 51°16.215 2°53.043 20.1888 0.071612 0.374821 -0.652328
2010-09-23 07:36:26 51°16.231 2°53.027 20.2047 0.071612 0.374833 -0.652328
2010-09-23 07:36:31 51°16.246 2°53.012 20.1773 0.071612 0.374833 -0.687152
2010-09-23 07:36:35 51°16.258 2°52.999 20.1809 0.071612 0.374833 -0.687152
2010-09-23 07:36:41 51°16.277 2°52.981 20.2032 0.071612 0.374833 -0.687152
2010-09-23 07:36:46 51°16.293 2°52.967 20.2131 0.071612 0.374844 -0.652328
2010-09-23 07:36:51 51°16.308 2°52.952 20.2075 0.071612 0.37485 -0.652328
2010-09-23 07:36:56 51°16.324 2°52.938 20.1848 0.071612 0.37485 -0.687152
2010-09-23 07:37:01 51°16.34 2°52.924 20.205 0.071612 0.374855 -0.652328
2010-09-23 07:37:06 51°16.356 2°52.909 20.1982 0.071612 0.374855 -0.652328
2010-09-23 07:37:11 51°16.371 2°52.895 20.2067 0.071612 0.374855 -0.687152
2010-09-23 07:37:15 51°16.384 2°52.884 20.206 0.071612 0.374855 -0.687152
2010-09-23 07:37:21 51°16.403 2°52.866 20.2156 0.071612 0.374861 -0.687152
2010-09-23 07:37:26 51°16.418 2°52.852 20.2099 0.071612 0.374867 -0.687152
2010-09-23 07:37:31 51°16.434 2°52.838 20.1929 0.071612 0.374861 -0.687152
2010-09-23 07:37:36 51°16.45 2°52.824 20.225 0.071612 0.374861 -0.687152
2010-09-23 07:37:41 51°16.465 2°52.81 20.2169 0.071612 0.374872 -0.687152
2010-09-23 07:37:46 51°16.481 2°52.796 20.1952 0.071612 0.374872 -0.687152
2010-09-23 07:37:51 51°16.497 2°52.782 20.1988 0.071612 0.374878 -0.687152
2010-09-23 07:37:55 51°16.509 2°52.77 20.2075 0.071612 0.374878 -0.721976
2010-09-23 07:38:01 51°16.528 2°52.753 20.2027 0.071612 0.374889 -0.721976
2010-09-23 07:38:06 51°16.544 2°52.739 20.1912 0.071612 0.374889 -0.721976
2010-09-23 07:38:11 51°16.559 2°52.725 20.1819 0.071612 0.374889 -0.687152
2010-09-23 07:38:15 51°16.572 2°52.714 20.2012 0.071612 0.374889 -0.687152
2010-09-23 07:38:20 51°16.587 2°52.701 20.1728 0.071612 0.374889 -0.652328
2010-09-23 07:38:26 51°16.606 2°52.685 20.1748 0.071612 0.374895 -0.687152
2010-09-23 07:38:31 51°16.623 2°52.674 20.189 0.071612 0.374895 -0.687152
2010-09-23 07:38:35 51°16.636 2°52.665 20.1882 0.071612 0.374895 -0.687152
2010-09-23 07:38:41 51°16.655 2°52.653 20.1944 0.071612 0.374901 -0.687152
2010-09-23 07:38:46 51°16.672 2°52.642 20.2129 0.071612 0.374912 -0.652328
2010-09-23 07:38:51 51°16.689 2°52.633 20.2052 0.071612 0.374901 -0.721976
2010-09-23 07:38:55 51°16.702 2°52.625 20.2198 0.071612 0.374918 -0.687152
2010-09-23 07:39:01 51°16.722 2°52.615 20.2076 0.071612 0.374907 -0.721976
2010-09-23 07:39:06 51°16.738 2°52.606 20.2141 0.071612 0.374907 -0.721976
2010-09-23 07:39:11 51°16.754 2°52.598 20.2123 0.071612 0.374924 -0.652328
2010-09-23 07:39:16 51°16.77 2°52.59 20.2052 0.071612 0.374918 -0.687152
2010-09-23 07:39:21 51°16.787 2°52.582 20.2188 0.071612 0.374929 -0.687152
2010-09-23 07:39:26 51°16.803 2°52.574 20.2126 0.071612 0.374924 -0.652328
2010-09-23 07:39:31 51°16.82 2°52.566 20.2154 0.071612 0.374924 -0.687152
2010-09-23 07:39:35 51°16.833 2°52.559 20.2372 0.071612 0.374924 -0.687152
2010-09-23 07:39:41 51°16.853 2°52.549 20.2123 0.071612 0.374929 -0.652328
2010-09-23 07:39:46 51°16.869 2°52.54 20.1893 0.071612 0.374935 -0.687152
2010-09-23 07:39:51 51°16.885 2°52.532 20.2297 0.071612 0.374935 -0.721976
2010-09-23 07:39:56 51°16.902 2°52.523 20.2002 0.071612 0.374941 -0.687152
2010-09-23 07:40:01 51°16.918 2°52.514 20.2147 0.071612 0.374935 -0.721976
2010-09-23 07:40:06 51°16.935 2°52.505 20.2128 0.071612 0.374935 -0.721976
2010-09-23 07:40:11 51°16.951 2°52.497 20.2214 0.071612 0.374952 -0.652328
2010-09-23 07:40:15 51°16.964 2°52.49 20.2216 0.071612 0.374941 -0.687152
2010-09-23 07:40:21 51°16.984 2°52.481 20.1911 0.071612 0.374941 -0.721976
2010-09-23 07:40:26 51°17 2°52.472 20.2255 0.071612 0.374946 -0.687152
2010-09-23 07:40:31 51°17.017 2°52.464 20.1991 0.071612 0.374952 -0.687152
2010-09-23 07:40:35 51°17.03 2°52.457 20.2091 0.071612 0.374952 -0.687152
2010-09-23 07:40:41 51°17.05 2°52.446 20.2318 0.071612 0.374958 -0.687152
2010-09-23 07:40:46 51°17.066 2°52.437 20.2227 0.071612 0.374958 -0.652328
2010-09-23 07:40:51 51°17.083 2°52.429 20.2016 0.071612 0.374963 -0.687152
2010-09-23 07:40:55 51°17.096 2°52.422 20.214 0.071612 0.374958 -0.687152
2010-09-23 07:41:01 51°17.116 2°52.412 20.2219 0.071612 0.374963 -0.687152
2010-09-23 07:41:06 51°17.132 2°52.403 20.2165 0.071612 0.374963 -0.687152
2010-09-23 07:41:11 51°17.149 2°52.394 20.2092 0.071612 0.374969 -0.687152
2010-09-23 07:41:15 51°17.162 2°52.387 20.2241 0.071612 0.374969 -0.652328
2010-09-23 07:41:21 51°17.182 2°52.376 20.2318 0.071612 0.374975 -0.687152
2010-09-23 07:41:26 51°17.198 2°52.368 20.2132 0.071612 0.374981 -0.687152
2010-09-23 07:41:31 51°17.215 2°52.358 20.2163 0.071612 0.374981 -0.687152
2010-09-23 07:41:35 51°17.228 2°52.351 20.2363 0.071612 0.374981 -0.687152
2010-09-23 07:41:41 51°17.248 2°52.341 20.1956 0.071612 0.374981 -0.687152
2010-09-23 07:41:46 51°17.265 2°52.332 20.2444 0.071612 0.374992 -0.652328
2010-09-23 07:41:51 51°17.281 2°52.322 20.2253 0.071612 0.374981 -0.652328
2010-09-23 07:41:55 51°17.294 2°52.315 20.2347 0.071612 0.374998 -0.721976
2010-09-23 07:42:01 51°17.314 2°52.304 20.2087 0.071612 0.374992 -0.687152
2010-09-23 07:42:06 51°17.331 2°52.295 20.239 0.071612 0.374992 -0.687152
2010-09-23 07:42:11 51°17.347 2°52.286 20.2073 0.071612 0.374992 -0.652328
2010-09-23 07:42:15 51°17.361 2°52.279 20.2339 0.071612 0.375003 -0.652328
2010-09-23 07:42:21 51°17.381 2°52.268 20.2171 0.071612 0.374998 -0.687152
2010-09-23 07:42:26 51°17.397 2°52.259 20.2391 0.071612 0.375009 -0.687152
2010-09-23 07:42:31 51°17.414 2°52.25 20.2277 0.071612 0.374998 -0.687152
2010-09-23 07:42:35 51°17.427 2°52.243 20.2334 0.071612 0.374998 -0.687152
2010-09-23 07:42:41 51°17.447 2°52.232 20.2189 0.071612 0.375015 -0.687152
2010-09-23 07:42:46 51°17.464 2°52.223 20.2558 0.071612 0.375015 -0.687152
2010-09-23 07:42:51 51°17.48 2°52.215 20.2453 0.071612 0.375015 -0.687152
2010-09-23 07:42:55 51°17.494 2°52.207 20.2318 0.071612 0.37502 -0.721976
2010-09-23 07:43:01 51°17.514 2°52.197 20.2361 0.071612 0.375026 -0.687152
2010-09-23 07:43:06 51°17.53 2°52.188 20.2338 0.071612 0.375026 -0.687152
2010-09-23 07:43:11 51°17.547 2°52.179 20.2207 0.071612 0.37502 -0.687152
2010-09-23 07:43:15 51°17.56 2°52.172 20.2417 0.071612 0.375037 -0.687152
2010-09-23 07:43:21 51°17.58 2°52.161 20.2385 0.071612 0.375032 -0.687152
2010-09-23 07:43:26 51°17.596 2°52.152 20.243 0.071612 0.375037 -0.652328
2010-09-23 07:43:31 51°17.613 2°52.144 20.2443 0.071612 0.375037 -0.687152
2010-09-23 07:43:35 51°17.626 2°52.136 20.2359 0.071612 0.375037 -0.687152
2010-09-23 07:43:41 51°17.646 2°52.126 20.2272 0.071612 0.375037 -0.687152
2010-09-23 07:43:46 51°17.662 2°52.117 20.2391 0.071612 0.375049 -0.652328
2010-09-23 07:43:51 51°17.678 2°52.107 20.2377 0.071612 0.375037 -0.687152
2010-09-23 07:43:55 51°17.691 2°52.1 20.2409 0.071612 0.375055 -0.652328
2010-09-23 07:44:01 51°17.711 2°52.089 20.2554 0.071612 0.375055 -0.652328
2010-09-23 07:44:06 51°17.727 2°52.08 20.216 0.071612 0.375055 -0.652328
2010-09-23 07:44:11 51°17.744 2°52.071 20.2495 0.071612 0.37506 -0.687152
2010-09-23 07:44:15 51°17.757 2°52.064 20.2305 0.071612 0.375055 -0.687152
2010-09-23 07:44:21 51°17.777 2°52.053 20.2368 0.071612 0.375072 -0.652328
2010-09-23 07:44:26 51°17.793 2°52.044 20.2382 0.071612 0.375066 -0.652328
2010-09-23 07:44:31 51°17.809 2°52.035 20.2471 0.071612 0.375066 -0.652328
2010-09-23 07:44:35 51°17.822 2°52.028 20.2326 0.071612 0.375066 -0.652328
2010-09-23 07:44:41 51°17.842 2°52.017 20.256 0.071612 0.375077 -0.687152
2010-09-23 07:44:46 51°17.859 2°52.007 20.2427 0.071612 0.375077 -0.721976
2010-09-23 07:44:51 51°17.875 2°51.997 20.2257 0.071612 0.375083 -0.721976
2010-09-23 07:44:55 51°17.888 2°51.989 20.2292 0.071612 0.375089 -0.687152
2010-09-23 07:45:01 51°17.907 2°51.977 20.2414 0.071612 0.375094 -0.687152
2010-09-23 07:45:06 51°17.923 2°51.967 20.2042 0.071612 0.375094 -0.687152
2010-09-23 07:45:11 51°17.94 2°51.956 20.253 0.071612 0.375094 -0.652328
2010-09-23 07:45:15 51°17.953 2°51.948 20.2078 0.071612 0.375094 -0.687152
2010-09-23 07:45:21 51°17.972 2°51.936 20.2504 0.071612 0.375106 -0.687152
2010-09-23 07:45:26 51°17.989 2°51.927 20.2227 0.071612 0.375106 -0.652328
2010-09-23 07:45:31 51°18.006 2°51.917 20.2519 0.071612 0.375106 -0.652328
2010-09-23 07:45:35 51°18.019 2°51.909 20.244 0.071612 0.375106 -0.652328
2010-09-23 07:45:41 51°18.039 2°51.897 20.2505 0.071612 0.375112 -0.687152
2010-09-23 07:45:46 51°18.055 2°51.887 20.2411 0.071612 0.375112 -0.652328
2010-09-23 07:45:51 51°18.072 2°51.877 20.2595 0.071612 0.375117 -0.652328
2010-09-23 07:45:56 51°18.088 2°51.866 20.242 0.071612 0.375123 -0.687152
2010-09-23 07:46:01 51°18.105 2°51.856 20.2446 0.071612 0.375129 -0.687152
2010-09-23 07:46:06 51°18.121 2°51.845 20.2418 0.071612 0.375129 -0.687152
2010-09-23 07:46:11 51°18.138 2°51.835 20.2621 0.071612 0.375129 -0.687152
2010-09-23 07:46:15 51°18.151 2°51.826 20.2305 0.071612 0.375134 -0.687152
2010-09-23 07:46:21 51°18.171 2°51.814 20.2601 0.071612 0.375129 -0.721976
2010-09-23 07:46:26 51°18.187 2°51.803 20.2317 0.071612 0.375134 -0.687152
2010-09-23 07:46:31 51°18.204 2°51.792 20.2409 0.071612 0.37514 -0.687152
2010-09-23 07:46:36 51°18.22 2°51.782 20.2595 0.071612 0.37514 -0.687152
2010-09-23 07:46:41 51°18.237 2°51.771 20.258 0.071612 0.37514 -0.687152
2010-09-23 07:46:46 51°18.254 2°51.761 20.2389 0.071612 0.375163 -0.687152
2010-09-23 07:46:51 51°18.27 2°51.75 20.2445 0.071612 0.375157 -0.687152
2010-09-23 07:46:55 51°18.284 2°51.741 20.2633 0.071612 0.375151 -0.687152
2010-09-23 07:47:01 51°18.303 2°51.728 20.2447 0.071612 0.375163 -0.721976
2010-09-23 07:47:06 51°18.32 2°51.717 20.2585 0.071612 0.375163 -0.721976
2010-09-23 07:47:11 51°18.337 2°51.707 20.2604 0.071612 0.375163 -0.687152
2010-09-23 07:47:15 51°18.35 2°51.698 20.2581 0.071612 0.375163 -0.687152
2010-09-23 07:47:21 51°18.37 2°51.685 20.2484 0.071612 0.375174 -0.687152
2010-09-23 07:47:26 51°18.387 2°51.674 20.2714 0.071612 0.37518 -0.687152
2010-09-23 07:47:31 51°18.403 2°51.663 20.2526 0.071612 0.37518 -0.687152
2010-09-23 07:47:35 51°18.417 2°51.655 20.2428 0.071612 0.37518 -0.687152
2010-09-23 07:47:41 51°18.437 2°51.641 20.258 0.071612 0.375186 -0.687152
2010-09-23 07:47:46 51°18.454 2°51.63 20.2408 0.071612 0.375191 -0.687152
2010-09-23 07:47:51 51°18.47 2°51.62 20.2536 0.071612 0.375197 -0.687152
2010-09-23 07:47:55 51°18.484 2°51.611 20.2507 0.071612 0.375197 -0.687152
2010-09-23 07:48:01 51°18.504 2°51.598 20.2603 0.071612 0.375203 -0.652328
2010-09-23 07:48:06 51°18.52 2°51.587 20.2471 0.071612 0.375203 -0.652328
2010-09-23 07:48:11 51°18.537 2°51.576 20.2672 0.071612 0.375203 -0.721976
2010-09-23 07:48:16 51°18.553 2°51.564 20.2419 0.071612 0.375208 -0.687152
2010-09-23 07:48:21 51°18.57 2°51.554 20.2623 0.071612 0.375214 -0.652328
2010-09-23 07:48:26 51°18.587 2°51.543 20.2604 0.071612 0.37522 -0.652328
2010-09-23 07:48:31 51°18.603 2°51.532 20.2531 0.071612 0.37522 -0.652328
2010-09-23 07:48:35 51°18.617 2°51.523 20.2398 0.071612 0.37522 -0.652328
2010-09-23 07:48:41 51°18.637 2°51.51 20.2717 0.071612 0.37522 -0.687152
2010-09-23 07:48:46 51°18.654 2°51.498 20.2639 0.071612 0.375231 -0.687152
2010-09-23 07:48:51 51°18.67 2°51.488 20.2646 0.071612 0.375231 -0.687152
2010-09-23 07:48:56 51°18.687 2°51.476 20.2676 0.071612 0.375231 -0.687152
2010-09-23 07:49:01 51°18.703 2°51.465 20.27 0.071612 0.375231 -0.687152
2010-09-23 07:49:06 51°18.72 2°51.454 20.2643 0.071612 0.375231 -0.687152
2010-09-23 07:49:11 51°18.737 2°51.443 20.2779 0.071612 0.375248 -0.687152
2010-09-23 07:49:15 51°18.75 2°51.434 20.2637 0.071612 0.375248 -0.652328
2010-09-23 07:49:21 51°18.77 2°51.42 20.2528 0.071612 0.375248 -0.652328
2010-09-23 07:49:26 51°18.786 2°51.408 20.2634 0.071612 0.375248 -0.687152
2010-09-23 07:49:31 51°18.803 2°51.397 20.2597 0.071612 0.375254 -0.687152
2010-09-23 07:49:35 51°18.816 2°51.388 20.2573 0.071612 0.375254 -0.687152
2010-09-23 07:49:41 51°18.836 2°51.374 20.2661 0.071612 0.37526 -0.687152
2010-09-23 07:49:46 51°18.852 2°51.362 20.2506 0.071612 0.375265 -0.687152
2010-09-23 07:49:51 51°18.869 2°51.351 20.2679 0.071612 0.375265 -0.687152
2010-09-23 07:49:55 51°18.882 2°51.342 20.257 0.071612 0.375265 -0.652328
2010-09-23 07:50:01 51°18.902 2°51.328 20.2767 0.071612 0.375271 -0.687152
2010-09-23 07:50:06 51°18.919 2°51.317 20.2549 0.071612 0.375271 -0.687152
2010-09-23 07:50:11 51°18.935 2°51.305 20.271 0.071612 0.375277 -0.652328
2010-09-23 07:50:15 51°18.948 2°51.296 20.2654 0.071612 0.375277 -0.652328
2010-09-23 07:50:21 51°18.968 2°51.282 20.2791 0.071612 0.375277 -0.687152
2010-09-23 07:50:26 51°18.985 2°51.271 20.26 0.071612 0.375283 -0.687152
2010-09-23 07:50:31 51°19.001 2°51.26 20.2713 0.071612 0.375288 -0.687152
2010-09-23 07:50:35 51°19.014 2°51.251 20.2515 0.071612 0.375288 -0.687152
2010-09-23 07:50:41 51°19.034 2°51.237 20.2762 0.071612 0.375294 -0.687152
2010-09-23 07:50:46 51°19.051 2°51.225 20.2563 0.071612 0.375294 -0.721976
2010-09-23 07:50:51 51°19.067 2°51.214 20.2773 0.071612 0.3753 -0.687152
2010-09-23 07:50:55 51°19.08 2°51.205 20.246 0.071612 0.3753 -0.687152
2010-09-23 07:51:01 51°19.1 2°51.191 20.2759 0.071612 0.375305 -0.687152
2010-09-23 07:51:06 51°19.116 2°51.179 20.2611 0.071612 0.375305 -0.687152
2010-09-23 07:51:11 51°19.133 2°51.168 20.2737 0.071612 0.375311 -0.721976
2010-09-23 07:51:16 51°19.15 2°51.157 20.254 0.071612 0.375311 -0.687152
2010-09-23 07:51:21 51°19.167 2°51.145 20.2798 0.071612 0.375317 -0.652328
2010-09-23 07:51:26 51°19.183 2°51.134 20.2575 0.071612 0.375317 -0.687152
2010-09-23 07:51:31 51°19.2 2°51.122 20.2764 0.071612 0.375322 -0.721976
2010-09-23 07:51:35 51°19.213 2°51.113 20.269 0.071612 0.375322 -0.721976
2010-09-23 07:51:41 51°19.232 2°51.099 20.2726 0.071612 0.375328 -0.652328
2010-09-23 07:51:46 51°19.249 2°51.088 20.2743 0.071612 0.375322 -0.652328
2010-09-23 07:51:51 51°19.266 2°51.076 20.2558 0.071612 0.375328 -0.687152
2010-09-23 07:51:55 51°19.279 2°51.067 20.2833 0.071612 0.375334 -0.687152
2010-09-23 07:52:01 51°19.299 2°51.053 20.267 0.071612 0.37534 -0.652328
2010-09-23 07:52:06 51°19.316 2°51.042 20.2702 0.071612 0.37534 -0.652328
2010-09-23 07:52:11 51°19.332 2°51.03 20.2678 0.071612 0.37534 -0.687152
2010-09-23 07:52:15 51°19.345 2°51.021 20.2636 0.071612 0.375345 -0.652328
2010-09-23 07:52:21 51°19.365 2°51.007 20.2841 0.071612 0.375351 -0.687152
2010-09-23 07:52:26 51°19.382 2°50.996 20.2778 0.071612 0.375351 -0.687152
2010-09-23 07:52:31 51°19.398 2°50.984 20.2743 0.071612 0.375362 -0.687152
2010-09-23 07:52:35 51°19.412 2°50.975 20.2923 0.071612 0.375362 -0.687152
2010-09-23 07:52:41 51°19.432 2°50.961 20.2556 0.071612 0.375368 -0.687152
2010-09-23 07:52:46 51°19.448 2°50.95 20.2804 0.071612 0.375374 -0.687152
2010-09-23 07:52:51 51°19.465 2°50.939 20.2805 0.071612 0.375368 -0.687152
2010-09-23 07:52:55 51°19.478 2°50.93 20.2834 0.071612 0.375374 -0.687152
2010-09-23 07:53:01 51°19.498 2°50.916 20.287 0.071612 0.375374 -0.687152
2010-09-23 07:53:06 51°19.515 2°50.905 20.2886 0.071612 0.375374 -0.687152
2010-09-23 07:53:11 51°19.531 2°50.894 20.2724 0.071612 0.375385 -0.687152
2010-09-23 07:53:15 51°19.545 2°50.884 20.3012 0.071612 0.375385 -0.687152
2010-09-23 07:53:21 51°19.564 2°50.871 20.2762 0.071612 0.375391 -0.687152
2010-09-23 07:53:26 51°19.581 2°50.86 20.2893 0.071612 0.375391 -0.721976
2010-09-23 07:53:31 51°19.598 2°50.849 20.2772 0.071612 0.375391 -0.721976
2010-09-23 07:53:35 51°19.611 2°50.84 20.2993 0.071612 0.375391 -0.721976
2010-09-23 07:53:41 51°19.631 2°50.827 20.3021 0.071612 0.375402 -0.687152
2010-09-23 07:53:46 51°19.647 2°50.816 20.2944 0.071612 0.375397 -0.721976
2010-09-23 07:53:51 51°19.664 2°50.805 20.2736 0.071612 0.375402 -0.687152
2010-09-23 07:53:55 51°19.677 2°50.796 20.2709 0.071612 0.375408 -0.687152
2010-09-23 07:54:01 51°19.697 2°50.783 20.2801 0.071612 0.37542 -0.721976
2010-09-23 07:54:06 51°19.714 2°50.772 20.3014 0.071612 0.37542 -0.721976
2010-09-23 07:54:11 51°19.73 2°50.761 20.2732 0.071612 0.375414 -0.687152
2010-09-23 07:54:15 51°19.743 2°50.753 20.2853 0.071612 0.375414 -0.721976
2010-09-23 07:54:21 51°19.763 2°50.74 20.2895 0.071612 0.37542 -0.687152
2010-09-23 07:54:26 51°19.78 2°50.729 20.303 0.071612 0.375425 -0.687152
2010-09-23 07:54:31 51°19.797 2°50.719 20.2832 0.071612 0.375425 -0.687152
2010-09-23 07:54:35 51°19.81 2°50.71 20.2746 0.071612 0.375425 -0.687152
2010-09-23 07:54:41 51°19.829 2°50.697 20.2855 0.071612 0.375431 -0.687152
2010-09-23 07:54:46 51°19.845 2°50.687 20.2763 0.071612 0.375437 -0.652328
2010-09-23 07:54:51 51°19.861 2°50.676 20.3043 0.071612 0.375437 -0.687152
2010-09-23 07:54:55 51°19.873 2°50.668 20.2729 0.071612 0.375442 -0.687152
2010-09-23 07:55:01 51°19.892 2°50.656 20.2882 0.071612 0.375442 -0.687152
2010-09-23 07:55:06 51°19.907 2°50.646 20.285 0.071612 0.375442 -0.687152
2010-09-23 07:55:11 51°19.922 2°50.635 20.2961 0.071612 0.375448 -0.652328
2010-09-23 07:55:15 51°19.935 2°50.627 20.2837 0.071612 0.375448 -0.687152
2010-09-23 07:55:21 51°19.953 2°50.615 20.3043 0.071612 0.375448 -0.687152
2010-09-23 07:55:26 51°19.968 2°50.604 20.2813 0.071612 0.375459 -0.687152
2010-09-23 07:55:31 51°19.983 2°50.594 20.2832 0.071612 0.375454 -0.687152
2010-09-23 07:55:35 51°19.995 2°50.585 20.275 0.071612 0.375454 -0.687152
2010-09-23 07:55:41 51°20.013 2°50.573 20.2253 0.071612 0.375459 -0.687152
2010-09-23 07:55:46 51°20.028 2°50.564 20.2801 0.071612 0.375465 -0.687152
2010-09-23 07:55:51 51°20.044 2°50.555 20.239 0.071612 0.375459 -0.687152
2010-09-23 07:55:55 51°20.056 2°50.548 20.3044 0.071612 0.375465 -0.652328
2010-09-23 07:56:01 51°20.074 2°50.54 20.2745 0.071612 0.375471 -0.687152
2010-09-23 07:56:06 51°20.09 2°50.532 20.2896 0.071612 0.375471 -0.687152
2010-09-23 07:56:11 51°20.105 2°50.525 20.282 0.071612 0.375471 -0.687152
2010-09-23 07:56:15 51°20.118 2°50.52 20.2988 0.071612 0.375477 -0.687152
2010-09-23 07:56:21 51°20.136 2°50.512 20.2835 0.071612 0.375482 -0.721976
2010-09-23 07:56:26 51°20.152 2°50.506 20.3019 0.071612 0.375488 -0.687152
2010-09-23 07:56:31 51°20.167 2°50.5 20.3041 0.071612 0.375488 -0.687152
2010-09-23 07:56:35 51°20.18 2°50.495 20.2855 0.071612 0.375488 -0.687152
2010-09-23 07:56:41 51°20.198 2°50.488 20.3109 0.071612 0.375482 -0.687152
2010-09-23 07:56:46 51°20.214 2°50.482 20.2866 0.071612 0.375482 -0.687152
2010-09-23 07:56:51 51°20.23 2°50.476 20.3109 0.071612 0.375494 -0.687152
2010-09-23 07:56:55 51°20.243 2°50.472 20.3102 0.071612 0.375488 -0.687152
2010-09-23 07:57:01 51°20.262 2°50.465 20.3083 0.071612 0.375488 -0.687152
2010-09-23 07:57:06 51°20.277 2°50.459 20.2989 0.071612 0.375488 -0.687152
2010-09-23 07:57:11 51°20.293 2°50.453 20.2909 0.071612 0.375494 -0.687152
2010-09-23 07:57:15 51°20.306 2°50.448 20.2888 0.071612 0.375505 -0.687152
2010-09-23 07:57:21 51°20.325 2°50.441 20.2973 0.071612 0.375505 -0.652328
2010-09-23 07:57:26 51°20.341 2°50.435 20.3035 0.071612 0.375511 -0.687152
2010-09-23 07:57:31 51°20.357 2°50.429 20.3081 0.071612 0.375511 -0.687152
2010-09-23 07:57:35 51°20.37 2°50.425 20.3069 0.071612 0.375511 -0.687152
2010-09-23 07:57:41 51°20.389 2°50.418 20.2846 0.071612 0.375517 -0.687152
2010-09-23 07:57:46 51°20.405 2°50.412 20.2988 0.071612 0.375522 -0.721976
2010-09-23 07:57:51 51°20.421 2°50.408 20.2772 0.071612 0.375517 -0.652328
2010-09-23 07:57:55 51°20.434 2°50.404 20.2983 0.071612 0.375528 -0.652328
2010-09-23 07:58:01 51°20.454 2°50.399 20.3055 0.071612 0.375528 -0.687152
2010-09-23 07:58:06 51°20.47 2°50.395 20.3102 0.071612 0.375528 -0.687152
2010-09-23 07:58:11 51°20.486 2°50.391 20.2991 0.071612 0.375522 -0.652328
2010-09-23 07:58:15 51°20.499 2°50.388 20.3035 0.071612 0.375539 -0.687152
2010-09-23 07:58:21 51°20.519 2°50.384 20.2886 0.071612 0.375539 -0.687152
2010-09-23 07:58:26 51°20.535 2°50.38 20.3 0.071612 0.375545 -0.687152
2010-09-23 07:58:31 51°20.552 2°50.377 20.3027 0.071612 0.375545 -0.721976
2010-09-23 07:58:35 51°20.565 2°50.374 20.2968 0.071612 0.375545 -0.721976
2010-09-23 07:58:40 51°20.581 2°50.37 20.2625 0.071612 0.375551 -0.687152
2010-09-23 07:58:46 51°20.601 2°50.366 20.3065 0.071612 0.375557 -0.687152
2010-09-23 07:58:51 51°20.617 2°50.364 20.2647 0.071612 0.375551 -0.687152
2010-09-23 07:58:55 51°20.631 2°50.361 20.3118 0.071612 0.375562 -0.721976
2010-09-23 07:59:01 51°20.65 2°50.36 20.2745 0.071612 0.375557 -0.687152
2010-09-23 07:59:06 51°20.667 2°50.357 20.3159 0.071612 0.375557 -0.687152
2010-09-23 07:59:11 51°20.683 2°50.356 20.2831 0.071612 0.375562 -0.721976
2010-09-23 07:59:15 51°20.697 2°50.354 20.314 0.071612 0.375574 -0.687152
2010-09-23 07:59:21 51°20.716 2°50.353 20.2838 0.071612 0.375568 -0.687152
2010-09-23 07:59:26 51°20.733 2°50.352 20.3055 0.071612 0.375579 -0.687152
2010-09-23 07:59:31 51°20.749 2°50.351 20.2993 0.071612 0.375585 -0.687152
2010-09-23 07:59:35 51°20.762 2°50.351 20.3142 0.071612 0.375585 -0.687152
2010-09-23 07:59:41 51°20.782 2°50.351 20.2972 0.071612 0.375579 -0.687152
2010-09-23 07:59:46 51°20.798 2°50.351 20.3076 0.071612 0.375585 -0.687152
2010-09-23 07:59:51 51°20.815 2°50.352 20.3051 0.071612 0.375574 -0.687152
2010-09-23 07:59:55 51°20.828 2°50.353 20.3216 0.071612 0.375591 -0.687152
2010-09-23 08:00:01 51°20.847 2°50.354 20.3057 0.071612 0.375591 -0.687152
2010-09-23 08:00:06 51°20.864 2°50.355 20.3038 0.071612 0.375591 -0.687152
2010-09-23 08:00:11 51°20.88 2°50.357 20.287 0.071612 0.375591 -0.652328
2010-09-23 08:00:16 51°20.896 2°50.359 20.317 0.071612 0.375602 -0.687152
2010-09-23 08:00:21 51°20.912 2°50.362 20.309 0.071612 0.375602 -0.721976
2010-09-23 08:00:26 51°20.928 2°50.365 20.3169 0.071612 0.375602 -0.721976
2010-09-23 08:00:31 51°20.944 2°50.368 20.315 0.071612 0.375602 -0.721976
2010-09-23 08:00:35 51°20.957 2°50.371 20.3163 0.071612 0.375602 -0.721976
2010-09-23 08:00:41 51°20.976 2°50.375 20.3206 0.071612 0.375614 -0.687152
2010-09-23 08:00:46 51°20.992 2°50.379 20.314 0.071612 0.375608 -0.687152
2010-09-23 08:00:51 51°21.008 2°50.383 20.315 0.071612 0.375608 -0.687152
2010-09-23 08:00:55 51°21.02 2°50.386 20.3209 0.071612 0.375614 -0.687152
2010-09-23 08:01:00 51°21.036 2°50.391 20.3041 0.071612 0.375619 -0.721976
2010-09-23 08:01:06 51°21.055 2°50.397 20.323 0.071612 0.375619 -0.721976
2010-09-23 08:01:11 51°21.07 2°50.403 20.3153 0.071612 0.375619 -0.687152
2010-09-23 08:01:15 51°21.083 2°50.407 20.3427 0.071612 0.375625 -0.652328
2010-09-23 08:01:21 51°21.102 2°50.414 20.3148 0.071612 0.375625 -0.687152
2010-09-23 08:01:26 51°21.117 2°50.42 20.3321 0.071612 0.375637 -0.687152
2010-09-23 08:01:31 51°21.133 2°50.426 20.337 0.071612 0.375631 -0.652328
2010-09-23 08:01:35 51°21.145 2°50.43 20.3259 0.071612 0.375631 -0.652328
2010-09-23 08:01:41 51°21.164 2°50.437 20.314 0.071612 0.375631 -0.687152
2010-09-23 08:01:46 51°21.18 2°50.442 20.3415 0.071612 0.375631 -0.652328
2010-09-23 08:01:51 51°21.195 2°50.449 20.3412 0.071612 0.375625 -0.652328
2010-09-23 08:01:55 51°21.207 2°50.453 20.3358 0.071612 0.375637 -0.721976
2010-09-23 08:02:01 51°21.226 2°50.46 20.3369 0.071612 0.375637 -0.687152
2010-09-23 08:02:06 51°21.242 2°50.465 20.3315 0.071612 0.375637 -0.687152
2010-09-23 08:02:11 51°21.257 2°50.471 20.3512 0.071612 0.375642 -0.652328
2010-09-23 08:02:15 51°21.27 2°50.476 20.349 0.071612 0.375642 -0.721976
2010-09-23 08:02:21 51°21.289 2°50.482 20.3478 0.071612 0.375642 -0.652328
2010-09-23 08:02:26 51°21.304 2°50.488 20.3509 0.071612 0.375648 -0.687152
2010-09-23 08:02:31 51°21.32 2°50.494 20.3201 0.071612 0.375654 -0.687152
2010-09-23 08:02:35 51°21.332 2°50.498 20.3512 0.071612 0.375654 -0.687152
2010-09-23 08:02:41 51°21.351 2°50.505 20.3327 0.071612 0.375654 -0.687152
2010-09-23 08:02:46 51°21.366 2°50.511 20.3468 0.071612 0.375654 -0.687152
2010-09-23 08:02:51 51°21.382 2°50.516 20.3369 0.071612 0.375654 -0.687152
2010-09-23 08:02:55 51°21.395 2°50.521 20.3534 0.071612 0.375659 -0.687152
2010-09-23 08:03:00 51°21.41 2°50.526 20.3447 0.071612 0.375659 -0.687152
2010-09-23 08:03:06 51°21.429 2°50.532 20.3623 0.071612 0.375659 -0.687152
2010-09-23 08:03:11 51°21.445 2°50.537 20.3388 0.071612 0.375659 -0.687152
2010-09-23 08:03:15 51°21.458 2°50.54 20.3604 0.071612 0.375671 -0.652328
2010-09-23 08:03:21 51°21.477 2°50.546 20.3382 0.071612 0.375659 -0.687152
2010-09-23 08:03:26 51°21.493 2°50.551 20.3437 0.071612 0.375671 -0.721976
2010-09-23 08:03:31 51°21.509 2°50.555 20.3337 0.071612 0.375671 -0.721976
2010-09-23 08:03:35 51°21.522 2°50.559 20.3495 0.071612 0.375671 -0.721976
2010-09-23 08:03:41 51°21.541 2°50.565 20.354 0.071612 0.375677 -0.687152
2010-09-23 08:03:46 51°21.557 2°50.569 20.362 0.071612 0.375688 -0.687152
2010-09-23 08:03:51 51°21.573 2°50.574 20.3403 0.071612 0.375688 -0.687152
2010-09-23 08:03:55 51°21.585 2°50.577 20.3652 0.071612 0.375688 -0.652328
2010-09-23 08:04:01 51°21.605 2°50.583 20.3513 0.071612 0.375694 -0.687152
2010-09-23 08:04:06 51°21.621 2°50.587 20.3371 0.071612 0.375694 -0.687152
2010-09-23 08:04:11 51°21.637 2°50.592 20.3683 0.071612 0.375694 -0.687152
2010-09-23 08:04:15 51°21.649 2°50.595 20.3702 0.071612 0.375694 -0.652328
2010-09-23 08:04:21 51°21.669 2°50.6 20.3564 0.071612 0.3757 -0.652328
2010-09-23 08:04:26 51°21.685 2°50.602 20.3658 0.071612 0.3757 -0.721976
2010-09-23 08:04:31 51°21.701 2°50.606 20.3687 0.071612 0.3757 -0.687152
2010-09-23 08:04:35 51°21.714 2°50.607 20.392 0.071612 0.3757 -0.687152
2010-09-23 08:04:41 51°21.734 2°50.61 20.3649 0.071612 0.375705 -0.687152
2010-09-23 08:04:46 51°21.75 2°50.611 20.3875 0.071612 0.375705 -0.652328
2010-09-23 08:04:51 51°21.767 2°50.612 20.376 0.071612 0.375705 -0.687152
2010-09-23 08:04:55 51°21.78 2°50.613 20.3797 0.071612 0.375717 -0.687152
2010-09-23 08:05:01 51°21.8 2°50.612 20.3933 0.071612 0.375717 -0.687152
2010-09-23 08:05:06 51°21.817 2°50.611 20.3803 0.071612 0.375717 -0.687152
2010-09-23 08:05:11 51°21.833 2°50.609 20.3782 0.071612 0.375722 -0.652328
2010-09-23 08:05:15 51°21.846 2°50.608 20.3714 0.071612 0.375717 -0.687152
2010-09-23 08:05:20 51°21.862 2°50.605 20.3954 0.071612 0.375722 -0.652328
2010-09-23 08:05:26 51°21.882 2°50.601 20.367 0.071612 0.375717 -0.687152
2010-09-23 08:05:31 51°21.899 2°50.596 20.3661 0.071612 0.375722 -0.721976
2010-09-23 08:05:35 51°21.912 2°50.592 20.3752 0.071612 0.375722 -0.721976
2010-09-23 08:05:41 51°21.932 2°50.585 20.3927 0.071612 0.375722 -0.721976
2010-09-23 08:05:46 51°21.948 2°50.579 20.417 0.071612 0.375722 -0.687152
2010-09-23 08:05:51 51°21.964 2°50.571 20.3962 0.071612 0.375722 -0.687152
2010-09-23 08:05:55 51°21.977 2°50.565 20.4059 0.071612 0.375722 -0.687152
2010-09-23 08:06:01 51°21.996 2°50.553 20.3809 0.071612 0.375734 -0.687152
2010-09-23 08:06:06 51°22.012 2°50.544 20.367 0.071612 0.375734 -0.687152
2010-09-23 08:06:11 51°22.027 2°50.533 20.3961 0.071612 0.375728 -0.687152
2010-09-23 08:06:16 51°22.043 2°50.523 20.3911 0.071612 0.375728 -0.652328
2010-09-23 08:06:21 51°22.058 2°50.511 20.3808 0.071612 0.375734 -0.687152
2010-09-23 08:06:26 51°22.074 2°50.5 20.3967 0.071612 0.375728 -0.687152
2010-09-23 08:06:31 51°22.089 2°50.487 20.3637 0.071612 0.37574 -0.652328
2010-09-23 08:06:35 51°22.101 2°50.477 20.406 0.071612 0.37574 -0.652328
2010-09-23 08:06:41 51°22.119 2°50.46 20.3534 0.071508 0.375176 -0.687152
2010-09-23 08:06:46 51°22.133 2°50.446 20.4108 0.071612 0.375745 -0.687152
2010-09-23 08:06:51 51°22.147 2°50.43 20.3911 0.071612 0.375745 -0.687152
2010-09-23 08:06:55 51°22.159 2°50.418 20.3977 0.071612 0.375745 -0.687152
2010-09-23 08:07:01 51°22.175 2°50.398 20.3749 0.071508 0.375188 -0.687152
2010-09-23 08:07:06 51°22.189 2°50.381 20.4073 0.071508 0.375188 -0.687152
2010-09-23 08:07:11 51°22.203 2°50.363 20.3596 0.071612 0.375757 -0.687152
2010-09-23 08:07:15 51°22.213 2°50.349 20.3774 0.071612 0.375762 -0.687152
2010-09-23 08:07:21 51°22.229 2°50.327 20.4009 0.071612 0.375757 -0.687152
2010-09-23 08:07:26 51°22.243 2°50.309 20.3575 0.071612 0.375757 -0.652328
2010-09-23 08:07:31 51°22.256 2°50.29 20.3895 0.071612 0.375762 -0.687152
2010-09-23 08:07:35 51°22.267 2°50.276 20.3774 0.071612 0.375762 -0.687152
2010-09-23 08:07:40 51°22.28 2°50.256 20.3965 0.071612 0.375768 -0.652328
2010-09-23 08:07:46 51°22.296 2°50.234 20.3521 0.071612 0.375762 -0.687152
2010-09-23 08:07:51 51°22.309 2°50.216 20.3942 0.071508 0.375211 -0.721976
2010-09-23 08:07:55 51°22.32 2°50.201 20.3503 0.071612 0.375774 -0.687152
2010-09-23 08:08:01 51°22.336 2°50.18 20.36 0.071612 0.37578 -0.652328
2010-09-23 08:08:06 51°22.349 2°50.162 20.3568 0.071612 0.37578 -0.652328
2010-09-23 08:08:11 51°22.363 2°50.144 20.3727 0.071612 0.375785 -0.721976
2010-09-23 08:08:15 51°22.374 2°50.131 20.3864 0.071612 0.375791 -0.652328
2010-09-23 08:08:21 51°22.391 2°50.111 20.367 0.071612 0.375791 -0.687152
2010-09-23 08:08:26 51°22.405 2°50.095 20.3674 0.071612 0.375797 -0.652328
2010-09-23 08:08:31 51°22.419 2°50.079 20.3784 0.071612 0.375785 -0.652328
2010-09-23 08:08:35 51°22.43 2°50.066 20.4062 0.071612 0.375785 -0.652328
2010-09-23 08:08:41 51°22.448 2°50.048 20.3569 0.071612 0.375797 -0.652328
2010-09-23 08:08:46 51°22.462 2°50.032 20.3855 0.071612 0.375797 -0.652328
2010-09-23 08:08:51 51°22.477 2°50.018 20.3721 0.071612 0.375803 -0.652328
2010-09-23 08:08:55 51°22.488 2°50.005 20.3957 0.071612 0.375803 -0.652328
2010-09-23 08:09:01 51°22.505 2°49.987 20.3943 0.071612 0.375803 -0.687152
2010-09-23 08:09:06 51°22.52 2°49.972 20.3926 0.071612 0.375803 -0.687152
2010-09-23 08:09:11 51°22.534 2°49.957 20.3898 0.071612 0.375803 -0.687152
2010-09-23 08:09:15 51°22.545 2°49.945 20.392 0.071612 0.375808 -0.652328
2010-09-23 08:09:21 51°22.562 2°49.927 20.3976 0.071612 0.375808 -0.687152
2010-09-23 08:09:26 51°22.576 2°49.913 20.3966 0.071612 0.37582 -0.721976
2010-09-23 08:09:31 51°22.59 2°49.898 20.4003 0.071612 0.375825 -0.687152
2010-09-23 08:09:35 51°22.601 2°49.887 20.3876 0.071612 0.375825 -0.687152
2010-09-23 08:09:41 51°22.618 2°49.869 20.3992 0.071612 0.375831 -0.687152
2010-09-23 08:09:46 51°22.631 2°49.855 20.4021 0.071612 0.375837 -0.687152
2010-09-23 08:09:51 51°22.645 2°49.841 20.4168 0.071612 0.375848 -0.687152
2010-09-23 08:09:55 51°22.656 2°49.83 20.3933 0.071612 0.375854 -0.687152
2010-09-23 08:10:00 51°22.67 2°49.815 20.3993 0.071612 0.37586 -0.687152
2010-09-23 08:10:06 51°22.686 2°49.798 20.3778 0.071612 0.37586 -0.687152
2010-09-23 08:10:11 51°22.7 2°49.784 20.4149 0.071612 0.37586 -0.687152
2010-09-23 08:10:15 51°22.711 2°49.772 20.4103 0.071612 0.375865 -0.652328
2010-09-23 08:10:21 51°22.727 2°49.755 20.4015 0.071612 0.375865 -0.687152
2010-09-23 08:10:26 51°22.741 2°49.741 20.4135 0.071612 0.375883 -0.721976
2010-09-23 08:10:31 51°22.754 2°49.727 20.4037 0.071612 0.375888 -0.687152
2010-09-23 08:10:35 51°22.765 2°49.715 20.4027 0.071612 0.375888 -0.687152
2010-09-23 08:10:41 51°22.781 2°49.699 20.3839 0.071508 0.375336 -0.652328
2010-09-23 08:10:46 51°22.795 2°49.685 20.4234 0.071612 0.375906 -0.687152
2010-09-23 08:10:51 51°22.808 2°49.671 20.4109 0.071612 0.375911 -0.687152
2010-09-23 08:10:55 51°22.819 2°49.66 20.4228 0.071612 0.375923 -0.652328
2010-09-23 08:11:01 51°22.836 2°49.644 20.3986 0.071612 0.375928 -0.687152
2010-09-23 08:11:06 51°22.849 2°49.631 20.431 0.071612 0.375928 -0.687152
2010-09-23 08:11:11 51°22.863 2°49.617 20.4069 0.071612 0.375928 -0.687152
2010-09-23 08:11:15 51°22.874 2°49.605 20.4314 0.071612 0.375934 -0.721976
2010-09-23 08:11:21 51°22.89 2°49.588 20.4026 0.071612 0.375946 -0.687152
2010-09-23 08:11:26 51°22.903 2°49.574 20.437 0.071612 0.37594 -0.652328
2010-09-23 08:11:31 51°22.916 2°49.56 20.3943 0.071612 0.37594 -0.687152
2010-09-23 08:11:35 51°22.927 2°49.548 20.4183 0.071612 0.37594 -0.687152
2010-09-23 08:11:41 51°22.943 2°49.531 20.4031 0.071612 0.375946 -0.687152
2010-09-23 08:11:46 51°22.956 2°49.517 20.4185 0.071612 0.375963 -0.687152
2010-09-23 08:11:51 51°22.97 2°49.503 20.4206 0.071612 0.375957 -0.687152
2010-09-23 08:11:55 51°22.98 2°49.492 20.4286 0.071612 0.375969 -0.652328
2010-09-23 08:12:01 51°22.997 2°49.475 20.4147 0.071612 0.375969 -0.721976
2010-09-23 08:12:06 51°23.01 2°49.461 20.4359 0.071612 0.375969 -0.721976
2010-09-23 08:12:11 51°23.024 2°49.447 20.4194 0.071612 0.375969 -0.721976
2010-09-23 08:12:15 51°23.035 2°49.435 20.4361 0.071612 0.375974 -0.687152
2010-09-23 08:12:21 51°23.052 2°49.418 20.4101 0.071612 0.375969 -0.687152
2010-09-23 08:12:26 51°23.066 2°49.403 20.4265 0.071612 0.375974 -0.687152
2010-09-23 08:12:31 51°23.079 2°49.389 20.4204 0.071508 0.375416 -0.687152
2010-09-23 08:12:35 51°23.09 2°49.377 20.442 0.071508 0.375416 -0.687152